[[{"header":{"parameterUnit":"m.s-1","parameterCategory":1,"la1":30.6,"la2":29.2853,"lo1":-89.7004,"lo2":-87.6739,"dx":0.0162,"dy":0.0183,"nx":112,"ny":82,"refTime":"2022-12-30T18:00:00:Z","depth":0,"parameterNumber":2,"parameterNumberName":"U-component_of_WINDS"},"data":[0.0,0.0,0.0,0.0,0.0,0.0,0.0,0.0,0.0,0.0,0.0,0.0,0.0,0.0,0.0,0.0,0.0,0.0,0.0,0.0,0.0,0.0,0.0,0.0,0.0,0.0,0.0,0.0,0.0,0.0,0.0,0.0,0.0,0.0,0.0,0.0,0.0,0.0,0.0,0.0,0.0,0.0,0.0,0.0,0.0,0.0,0.0,0.0,0.0,0.0,0.0,0.0,0.0,0.0,0.0,0.0,0.0,0.0,0.0,0.0,0.0,0.0,0.0,0.0,0.0,0.0,0.0,0.0,0.0,0.0,0.0,0.0,0.0,0.0,0.0,0.0,0.0,0.0,0.0,0.0,0.0,0.0,0.0,0.0,0.0,0.0,0.0,0.0,0.0,0.0,0.0,4.1209,4.1289,4.0937,4.0351,4.0039,3.918,3.7539,0.0,0.0,0.0,0.0,0.0,0.0,0.0,0.0,0.0,0.0,0.0,0.0,0.0,0.0,0.0,0.0,0.0,0.0,0.0,0.0,0.0,0.0,0.0,0.0,0.0,0.0,0.0,0.0,0.0,0.0,0.0,0.0,0.0,0.0,0.0,0.0,0.0,0.0,0.0,0.0,0.0,0.0,0.0,0.0,0.0,0.0,0.0,0.0,0.0,0.0,0.0,0.0,0.0,0.0,0.0,0.0,0.0,0.0,0.0,0.0,0.0,0.0,0.0,0.0,0.0,0.0,0.0,0.0,0.0,0.0,0.0,0.0,0.0,0.0,0.0,0.0,0.0,0.0,0.0,0.0,0.0,0.0,0.0,0.0,0.0,0.0,0.0,0.0,0.0,0.0,0.0,0.0,0.0,0.0,0.0,0.0,0.0,0.0,0.0,0.0,0.0,0.0,0.0,0.0,4.0345,4.2031,4.1601,4.1406,4.1953,4.0703,3.9453,3.8437,0.0,0.0,0.0,0.0,0.0,0.0,0.0,0.0,0.0,0.0,0.0,0.0,0.0,0.0,0.0,0.0,0.0,0.0,0.0,0.0,0.0,0.0,0.0,0.0,0.0,0.0,0.0,0.0,0.0,0.0,0.0,0.0,0.0,0.0,0.0,0.0,0.0,0.0,0.0,0.0,0.0,0.0,0.0,0.0,0.0,0.0,0.0,0.0,0.0,0.0,0.0,0.0,0.0,0.0,0.0,0.0,0.0,0.0,0.0,0.0,0.0,0.0,0.0,0.0,0.0,0.0,0.0,0.0,0.0,0.0,0.0,0.0,0.0,0.0,0.0,0.0,0.0,0.0,0.0,0.0,0.0,0.0,0.0,0.0,0.0,0.0,0.0,0.0,0.0,0.0,0.0,0.0,0.0,0.0,0.0,0.0,0.0,0.0,0.0,0.0,0.0,0.0,0.0,4.0687,4.1719,4.2969,4.2773,4.25,4.2422,4.1719,4.0703,3.9375,3.8086,0.0,0.0,0.0,0.0,0.0,0.0,0.0,0.0,0.0,0.0,0.0,0.0,0.0,0.0,0.0,0.0,0.0,0.0,0.0,0.0,0.0,0.0,0.0,0.0,0.0,0.0,0.0,0.0,0.0,0.0,0.0,0.0,0.0,0.0,0.0,0.0,0.0,0.0,0.0,0.0,0.0,0.0,0.0,0.0,0.0,0.0,0.0,0.0,0.0,0.0,0.0,0.0,0.0,0.0,0.0,0.0,0.0,0.0,0.0,0.0,0.0,0.0,0.0,0.0,0.0,0.0,0.0,0.0,0.0,0.0,0.0,0.0,0.0,0.0,0.0,0.0,0.0,0.0,0.0,0.0,0.0,0.0,0.0,0.0,0.0,0.0,0.0,0.0,0.0,0.0,0.0,0.0,0.0,0.0,0.0,0.0,0.0,0.0,0.0,0.0,0.0,0.0,4.2187,4.3047,4.3906,4.3828,4.3516,4.3047,4.2656,4.1758,4.0312,3.9219,0.0,0.0,0.0,0.0,0.0,0.0,0.0,0.0,0.0,0.0,0.0,0.0,0.0,0.0,0.0,0.0,0.0,0.0,0.0,0.0,0.0,0.0,0.0,0.0,0.0,0.0,0.0,0.0,0.0,0.0,0.0,0.0,0.0,0.0,0.0,0.0,0.0,0.0,0.0,0.0,0.0,0.0,0.0,0.0,0.0,0.0,0.0,0.0,0.0,0.0,0.0,0.0,0.0,0.0,0.0,0.0,0.0,0.0,0.0,0.0,0.0,0.0,0.0,0.0,0.0,0.0,0.0,0.0,0.0,0.0,0.0,0.0,0.0,0.0,0.0,0.0,0.0,0.0,0.0,0.0,0.0,0.0,0.0,0.0,0.0,0.0,0.0,0.0,0.0,0.0,0.0,0.0,0.0,0.0,0.0,0.0,0.0,0.0,0.0,0.0,0.0,0.0,4.3086,4.3945,4.4805,4.418,4.3984,4.4766,4.332,4.2031,4.1172,3.9531,0.0,0.0,0.0,0.0,0.0,0.0,0.0,0.0,0.0,0.0,0.0,0.0,0.0,0.0,0.0,0.0,0.0,0.0,0.0,0.0,0.0,0.0,0.0,0.0,0.0,0.0,0.0,0.0,0.0,0.0,0.0,0.0,0.0,0.0,0.0,0.0,0.0,0.0,0.0,0.0,0.0,0.0,0.0,0.0,0.0,0.0,0.0,0.0,0.0,0.0,0.0,0.0,0.0,0.0,0.0,0.0,0.0,0.0,0.0,0.0,0.0,0.0,0.0,0.0,0.0,0.0,0.0,0.0,0.0,0.0,0.0,0.0,0.0,0.0,0.0,0.0,0.0,0.0,0.0,0.0,0.0,0.0,0.0,0.0,0.0,0.0,0.0,0.0,0.0,0.0,0.0,0.0,0.0,0.0,0.0,0.0,0.0,0.0,0.0,0.0,0.0,0.0,4.3984,4.4844,0.0,4.5508,4.5234,4.5039,4.4414,4.3437,4.2031,0.0,0.0,0.0,0.0,0.0,0.0,0.0,0.0,0.0,0.0,0.0,0.0,0.0,0.0,0.0,0.0,0.0,0.0,0.0,0.0,0.0,0.0,0.0,0.0,0.0,0.0,0.0,0.0,0.0,0.0,0.0,0.0,0.0,0.0,0.0,0.0,0.0,0.0,0.0,0.0,0.0,0.0,0.0,0.0,0.0,0.0,0.0,0.0,0.0,0.0,0.0,0.0,0.0,0.0,0.0,0.0,0.0,0.0,0.0,0.0,0.0,0.0,0.0,0.0,0.0,0.0,0.0,0.0,0.0,0.0,0.0,0.0,0.0,0.0,0.0,0.0,0.0,0.0,0.0,0.0,0.0,0.0,0.0,0.0,0.0,0.0,0.0,0.0,0.0,0.0,0.0,0.0,0.0,0.0,0.0,0.0,0.0,0.0,0.0,0.0,0.0,0.0,4.3516,4.4687,4.5625,0.0,4.6289,4.6055,4.5469,4.5156,4.4375,4.2891,0.0,0.0,0.0,0.0,0.0,0.0,0.0,0.0,0.0,0.0,0.0,0.0,0.0,0.0,0.0,0.0,0.0,0.0,0.0,0.0,0.0,0.0,0.0,0.0,0.0,0.0,0.0,0.0,0.0,0.0,0.0,0.0,0.0,0.0,0.0,0.0,0.0,0.0,0.0,0.0,0.0,0.0,0.0,0.0,0.0,0.0,0.0,0.0,0.0,0.0,0.0,0.0,0.0,0.0,0.0,0.0,0.0,0.0,0.0,0.0,0.0,0.0,0.0,0.0,0.0,0.0,0.0,0.0,0.0,0.0,0.0,0.0,0.0,0.0,0.0,0.0,0.0,0.0,0.0,0.0,0.0,0.0,0.0,0.0,0.0,0.0,0.0,0.0,0.0,0.0,0.0,0.0,0.0,0.0,0.0,0.0,0.0,0.0,0.0,0.0,0.0,0.0,4.3594,4.5234,4.6289,4.6289,4.6289,4.6289,4.6289,4.5508,4.4648,0.0,0.0,0.0,0.0,0.0,0.0,0.0,0.0,0.0,0.0,0.0,0.0,0.0,0.0,0.0,0.0,0.0,0.0,0.0,0.0,0.0,0.0,0.0,0.0,0.0,0.0,0.0,0.0,0.0,0.0,0.0,0.0,0.0,0.0,0.0,0.0,0.0,0.0,0.0,0.0,0.0,0.0,0.0,0.0,0.0,0.0,0.0,0.0,0.0,0.0,0.0,0.0,0.0,0.0,0.0,0.0,0.0,0.0,0.0,0.0,0.0,0.0,0.0,0.0,0.0,0.0,0.0,0.0,0.0,0.0,0.0,0.0,0.0,0.0,0.0,0.0,0.0,0.0,0.0,0.0,0.0,0.0,0.0,0.0,0.0,0.0,0.0,0.0,0.0,0.0,0.0,0.0,0.0,0.0,0.0,0.0,0.0,0.0,0.0,0.0,0.0,0.0,0.0,4.4492,4.5586,4.6289,4.6289,4.6289,4.6289,4.6289,4.6055,4.5547,4.4687,0.0,0.0,0.0,0.0,0.0,0.0,0.0,0.0,0.0,0.0,0.0,0.0,0.0,0.0,0.0,0.0,0.0,0.0,0.0,0.0,0.0,0.0,0.0,0.0,0.0,0.0,0.0,0.0,0.0,0.0,0.0,0.0,0.0,0.0,0.0,0.0,0.0,0.0,0.0,0.0,0.0,0.0,0.0,0.0,0.0,0.0,0.0,0.0,0.0,0.0,0.0,0.0,0.0,0.0,0.0,0.0,0.0,0.0,0.0,0.0,0.0,0.0,0.0,0.0,0.0,0.0,0.0,0.0,0.0,0.0,0.0,0.0,0.0,0.0,0.0,0.0,0.0,0.0,0.0,0.0,0.0,0.0,0.0,0.0,0.0,0.0,0.0,0.0,0.0,0.0,0.0,0.0,0.0,0.0,0.0,0.0,0.0,0.0,0.0,0.0,0.0,0.0,4.4922,4.5742,4.6289,4.6289,4.6289,4.6289,4.6289,4.6289,4.5937,4.5078,0.0,0.0,0.0,0.0,0.0,0.0,0.0,0.0,0.0,0.0,0.0,0.0,0.0,0.0,0.0,0.0,0.0,0.0,0.0,0.0,0.0,0.0,0.0,0.0,0.0,0.0,0.0,0.0,0.0,0.0,0.0,0.0,0.0,0.0,0.0,0.0,0.0,0.0,0.0,0.0,0.0,0.0,0.0,0.0,0.0,0.0,0.0,0.0,0.0,0.0,0.0,0.0,0.0,0.0,0.0,0.0,0.0,0.0,0.0,0.0,0.0,0.0,0.0,0.0,0.0,0.0,0.0,0.0,0.0,0.0,0.0,0.0,0.0,0.0,0.0,0.0,0.0,0.0,0.0,0.0,0.0,0.0,0.0,0.0,0.0,0.0,0.0,0.0,0.0,0.0,0.0,0.0,0.0,0.0,0.0,0.0,0.0,0.0,0.0,0.0,0.0,0.0,4.5234,4.5937,4.6445,4.6523,4.6523,4.6523,4.6523,4.6484,4.6094,4.5273,0.0,0.0,0.0,0.0,0.0,0.0,0.0,0.0,0.0,0.0,0.0,0.0,0.0,0.0,0.0,0.0,0.0,0.0,0.0,0.0,0.0,0.0,0.0,0.0,0.0,0.0,0.0,0.0,0.0,0.0,0.0,0.0,0.0,0.0,0.0,0.0,0.0,0.0,0.0,0.0,0.0,0.0,0.0,0.0,0.0,0.0,0.0,0.0,0.0,0.0,0.0,0.0,0.0,0.0,0.0,0.0,0.0,0.0,0.0,0.0,4.2266,0.0,0.0,0.0,0.0,0.0,0.0,0.0,0.0,0.0,0.0,0.0,0.0,0.0,0.0,0.0,0.0,0.0,0.0,0.0,0.0,0.0,0.0,0.0,0.0,0.0,0.0,0.0,0.0,0.0,0.0,0.0,0.0,0.0,0.0,0.0,0.0,0.0,0.0,0.0,0.0,0.0,4.6875,4.7226,4.7578,4.8281,4.8359,4.8359,4.8359,4.7734,4.7226,4.707,4.5742,0.0,0.0,0.0,0.0,0.0,0.0,0.0,0.0,0.0,0.0,0.0,0.0,0.0,0.0,0.0,0.0,0.0,0.0,0.0,0.0,0.0,0.0,0.0,0.0,0.0,0.0,0.0,0.0,0.0,0.0,0.0,0.0,0.0,0.0,0.0,0.0,0.0,0.0,0.0,0.0,0.0,0.0,0.0,0.0,0.0,0.0,0.0,0.0,0.0,0.0,0.0,0.0,0.0,0.0,0.0,0.0,0.0,0.0,0.0,0.0,4.2539,0.0,0.0,0.0,0.0,0.0,0.0,0.0,0.0,0.0,0.0,0.0,0.0,0.0,0.0,0.0,0.0,0.0,0.0,0.0,0.0,0.0,0.0,0.0,0.0,0.0,0.0,0.0,0.0,0.0,0.0,0.0,0.0,0.0,0.0,0.0,0.0,0.0,0.0,0.0,0.0,4.7461,4.7969,4.8398,4.8867,4.8906,4.8906,4.8906,4.8476,4.8047,4.7617,4.6758,0.0,0.0,0.0,0.0,0.0,0.0,0.0,0.0,0.0,0.0,0.0,0.0,0.0,0.0,0.0,0.0,0.0,0.0,0.0,0.0,0.0,0.0,0.0,0.0,0.0,0.0,0.0,0.0,0.0,0.0,0.0,0.0,0.0,0.0,0.0,0.0,0.0,0.0,0.0,0.0,0.0,0.0,0.0,0.0,0.0,0.0,0.0,0.0,0.0,0.0,0.0,0.0,0.0,4.5234,4.5586,4.6289,4.6289,4.6289,4.6211,4.4766,4.4062,4.3945,0.0,0.0,0.0,0.0,0.0,0.0,0.0,0.0,0.0,0.0,0.0,0.0,0.0,0.0,0.0,0.0,0.0,0.0,0.0,0.0,0.0,0.0,0.0,0.0,0.0,4.4258,4.418,0.0,0.0,0.0,0.0,0.0,0.0,0.0,0.0,0.0,0.0,0.0,0.0,4.8203,4.8906,4.9453,4.9766,4.9805,4.9805,4.9805,4.9492,4.9023,4.832,4.7851,4.6953,0.0,0.0,0.0,0.0,0.0,0.0,0.0,0.0,0.0,0.0,0.0,0.0,0.0,0.0,0.0,0.0,0.0,0.0,0.0,0.0,0.0,0.0,0.0,0.0,0.0,0.0,0.0,0.0,0.0,0.0,0.0,0.0,3.6172,3.8047,0.0,0.0,0.0,0.0,0.0,0.0,0.0,0.0,0.0,0.0,0.0,0.0,0.0,4.4766,4.4648,4.5508,4.6016,4.6133,4.6133,4.6172,4.6289,4.6289,4.6289,4.6289,4.6055,0.0,4.4844,4.4844,0.0,0.0,0.0,0.0,0.0,0.0,0.0,0.0,0.0,0.0,0.0,0.0,0.0,0.0,0.0,0.0,0.0,0.0,0.0,0.0,0.0,0.0,4.5976,4.5976,4.6523,4.7031,0.0,4.5117,4.3516,4.3398,4.3476,0.0,0.0,0.0,0.0,0.0,0.0,0.0,5.0703,5.1016,5.1641,5.3164,5.332,5.332,5.332,5.1953,5.1016,5.0898,4.8828,4.75,4.7266,4.5781,0.0,0.0,0.0,0.0,0.0,0.0,0.0,0.0,0.0,0.0,0.0,0.0,0.0,0.0,0.0,0.0,0.0,0.0,0.0,0.0,0.0,0.0,0.0,0.0,0.0,0.0,0.0,0.0,0.0,3.6133,3.8125,3.9844,4.0391,4.1016,0.0,0.0,0.0,0.0,0.0,0.0,0.0,0.0,0.0,4.5156,4.5547,4.5976,4.6445,4.6836,4.7266,4.7773,4.7773,4.7773,4.7773,4.7773,4.7773,4.7773,4.7773,4.7539,4.7109,4.6133,4.5508,4.5156,0.0,0.0,0.0,0.0,4.5156,4.5156,4.5156,4.5156,0.0,4.4609,0.0,0.0,0.0,0.0,0.0,0.0,0.0,0.0,0.0,0.0,4.7773,4.7773,4.8047,4.832,4.832,4.7422,4.6601,0.0,4.6601,4.6758,4.7148,0.0,0.0,0.0,0.0,5.0742,5.1953,5.2578,5.3164,5.3906,5.3984,5.3984,5.3984,5.3281,5.2422,5.1445,5.0351,4.9297,4.8359,4.7148,4.6055,0.0,0.0,0.0,0.0,0.0,0.0,0.0,0.0,0.0,0.0,0.0,0.0,0.0,0.0,0.0,0.0,0.0,0.0,0.0,0.0,0.0,0.0,0.0,0.0,0.0,0.0,0.0,0.0,3.8437,3.9922,4.1641,4.2031,4.2656,0.0,0.0,0.0,0.0,0.0,0.0,4.5625,4.5664,4.6055,4.6953,4.6953,4.7266,4.793,4.793,4.8242,4.8906,4.8906,4.8906,4.8906,4.8906,4.8906,4.8906,4.8906,4.8906,4.8789,4.75,4.6953,4.6953,4.6953,4.6953,4.6953,4.6953,4.6953,4.6953,4.6953,4.6953,4.6875,4.6211,0.0,4.6016,4.6016,0.0,0.0,0.0,0.0,4.8125,4.9023,4.9219,4.9297,4.9492,4.9726,4.9883,4.9883,5.0039,5.0,0.0,4.9219,4.9297,4.9492,0.0,0.0,0.0,0.0,5.2383,5.3242,5.4141,5.4765,5.4961,5.5195,5.5234,5.5039,5.4805,5.4023,5.25,5.1992,5.1055,4.9609,4.8711,4.7734,4.6641,0.0,0.0,0.0,0.0,0.0,0.0,0.0,0.0,0.0,0.0,0.0,0.0,0.0,0.0,0.0,0.0,0.0,0.0,0.0,0.0,0.0,0.0,0.0,0.0,0.0,0.0,0.0,0.0,0.0,4.3359,4.4297,0.0,0.0,0.0,0.0,4.6172,4.6172,4.6562,4.7422,4.7461,4.7851,4.875,4.8789,4.8789,4.8828,4.8828,4.8867,4.8906,4.8906,4.8906,4.8906,4.8906,4.8906,4.8906,4.8906,4.8906,4.8906,4.8828,4.8789,4.8789,4.8789,4.8789,4.8789,4.8789,4.8789,4.8789,4.8789,4.8789,4.875,4.8711,4.8711,4.8711,4.8711,4.8711,0.0,0.0,4.8828,4.9023,4.9922,5.0117,5.0312,5.1094,5.1914,5.25,5.25,5.3164,5.3047,0.0,5.0117,5.0391,5.1133,0.0,5.2539,5.2578,5.332,5.418,5.5078,5.5937,5.6797,5.7617,5.8437,5.8594,5.7773,5.6953,5.6094,5.5156,5.3555,5.2226,5.1328,5.0508,4.9258,4.7578,4.6641,0.0,0.0,0.0,0.0,0.0,0.0,0.0,0.0,0.0,0.0,0.0,0.0,0.0,0.0,0.0,0.0,0.0,0.0,0.0,0.0,0.0,0.0,0.0,0.0,0.0,0.0,0.0,0.0,4.4414,4.4805,0.0,4.5781,4.6641,4.7148,4.7148,4.7656,4.8125,4.8437,4.8437,4.8594,4.8906,4.8906,4.9414,5.0508,5.0508,5.1055,5.2187,5.2187,5.2187,5.2187,5.2187,5.2187,5.2187,5.2187,5.2187,5.2187,5.2187,5.0898,4.8906,4.8906,4.8906,4.8906,4.8906,4.8906,4.8906,4.8906,4.8906,4.8984,4.9531,4.9726,4.9844,5.0351,5.0508,5.0625,5.1172,5.1367,5.1562,5.2422,5.2656,5.2734,5.3008,5.332,5.3672,5.4258,5.4609,5.4883,5.5117,5.3789,5.2734,5.3008,5.332,5.3906,5.5039,5.5469,5.6172,5.7617,5.8086,5.8398,5.8711,5.9023,5.9062,5.875,5.8437,5.7656,5.6211,5.5547,5.457,5.3125,5.1719,5.0664,5.0078,4.8672,4.7266,0.0,0.0,0.0,0.0,0.0,0.0,0.0,0.0,0.0,0.0,0.0,0.0,0.0,0.0,0.0,0.0,0.0,0.0,0.0,0.0,0.0,0.0,0.0,0.0,0.0,0.0,4.4453,4.5312,4.5703,4.6094,4.668,4.7539,4.8047,4.8047,4.8555,4.9141,4.9726,4.9726,5.0,5.0586,5.0625,5.1133,5.2266,5.2266,5.2851,5.3984,5.3984,5.3984,5.3984,5.3984,5.3984,5.3984,5.3984,5.3984,5.3984,5.3984,5.2656,5.0625,5.0625,5.0625,5.0625,5.0625,5.0625,5.0625,5.0625,5.0625,5.0703,5.1289,5.1484,5.1562,5.2109,5.2266,5.2383,5.2969,5.3359,5.3789,5.4648,5.5117,5.539,5.5664,5.5742,5.5898,5.6484,5.6601,5.6953,5.8125,5.6719,5.539,5.5703,5.5742,5.6133,5.7305,5.7461,5.789,5.9062,5.9453,5.9609,5.9609,5.9883,5.9922,5.9648,5.9609,5.8984,5.7578,5.7461,5.6719,5.4961,5.3789,5.2734,5.1875,5.0195,4.8633,4.7187,0.0,0.0,0.0,0.0,0.0,0.0,0.0,0.0,0.0,0.0,0.0,0.0,0.0,0.0,0.0,0.0,0.0,0.0,0.0,0.0,0.0,0.0,0.0,4.5,4.5039,4.5391,4.625,4.7109,4.7656,4.7656,4.8437,4.8984,4.8984,4.9023,4.9766,5.1406,5.1484,5.2266,5.3945,5.3984,5.4023,5.4023,5.4023,5.4062,5.4101,5.4101,5.4141,5.4141,5.4141,5.4141,5.4141,5.4141,5.4141,5.4141,5.4141,5.4141,5.4141,5.4023,5.3984,5.3984,5.3984,5.3984,5.3984,5.4023,5.4023,5.4062,5.4101,5.4101,5.4141,5.4141,5.4141,5.4141,5.4141,5.4765,5.5625,5.6445,5.7305,5.8164,5.8984,5.9219,5.9219,5.9219,5.9258,5.9258,5.9258,5.8594,5.8281,5.9062,5.9219,5.9219,5.9219,5.9258,0.0,5.9258,5.9961,6.043,6.043,6.1211,6.1367,6.0508,6.043,6.0117,5.9297,5.9258,5.8476,5.6758,5.664,5.543,5.2812,5.1133,4.9844,4.9023,0.0,0.0,0.0,0.0,0.0,0.0,0.0,0.0,0.0,0.0,0.0,0.0,0.0,0.0,0.0,0.0,0.0,0.0,0.0,0.0,0.0,0.0,4.5,4.5,4.6094,4.6953,4.7226,4.8008,4.8555,4.8555,4.9844,5.0703,5.0703,5.1875,5.2812,5.3242,5.3281,5.3516,5.3984,5.3984,5.4297,5.4922,5.4922,5.5586,5.6836,5.6836,5.7148,5.7773,5.7773,5.7773,5.7773,5.7773,5.7773,5.7773,5.7773,5.7773,5.7539,5.5,5.3984,5.3984,5.3984,5.3984,5.4101,5.4726,5.4922,5.5156,5.6406,5.6836,5.6953,5.7578,5.7773,5.7773,5.7773,5.793,5.8164,5.8437,5.8672,5.8906,5.914,5.9219,5.9375,5.9922,6.0078,6.0273,6.0898,6.082,6.0351,5.9375,5.9219,5.9414,5.9961,6.0078,0.0,6.0937,6.1211,6.1328,6.1328,6.1562,6.1601,6.1367,6.1328,6.0976,6.0117,6.0078,5.9609,5.8515,5.789,5.6601,5.4609,5.2891,5.1875,0.0,0.0,0.0,0.0,0.0,0.0,0.0,0.0,0.0,0.0,0.0,0.0,0.0,0.0,0.0,0.0,0.0,0.0,0.0,0.0,0.0,0.0,4.5859,4.6094,4.6094,4.6953,4.7734,4.8086,4.9219,4.9961,4.9961,5.1484,5.25,5.25,5.3437,5.4141,5.4531,5.4531,5.4883,5.5625,5.5625,5.6055,5.6914,5.6914,5.7422,5.8437,5.8437,5.8711,5.9219,5.9219,5.9219,0.0,5.9219,5.9219,5.9219,5.9219,5.9219,0.0,0.0,0.0,0.0,0.0,5.6172,5.625,5.6758,5.6914,5.7109,5.8125,5.8437,5.8555,5.9062,5.9219,5.9219,5.9219,5.9453,5.9687,5.9687,5.9961,6.0234,6.0234,6.0234,6.039,6.0859,6.0937,6.1094,6.1601,6.1719,0.0,6.043,6.0234,6.039,6.0859,6.0937,6.1133,6.164,6.1719,6.1719,6.1719,6.1719,6.1719,6.1719,6.1719,0.0,0.0,0.0,6.0586,5.9726,5.8906,0.0,0.0,0.0,0.0,0.0,0.0,0.0,0.0,4.957,4.9101,0.0,0.0,0.0,0.0,0.0,0.0,0.0,0.0,0.0,0.0,0.0,0.0,0.0,0.0,0.0,0.0,4.7187,4.7812,4.8008,4.8047,4.832,4.9101,5.0586,5.1601,5.168,5.3164,5.4141,5.4141,5.4336,5.4765,5.5547,0.0,0.0,0.0,0.0,5.8437,5.918,5.9219,5.9258,5.9336,5.9336,5.9375,5.9492,5.9492,5.9492,5.9492,5.9492,5.9492,5.9492,5.9492,5.9492,5.9453,5.9258,5.9219,5.9219,5.9219,5.9219,5.9219,5.9297,0.0,0.0,5.9453,5.9492,5.9492,5.9492,5.9492,5.9492,5.9492,6.0,6.0547,6.0547,6.1133,6.1719,6.1719,6.1719,6.1719,6.1719,6.1719,6.1719,6.1719,6.1719,6.1719,6.1719,6.1719,6.1719,6.1719,6.1719,6.1719,6.1719,6.1719,6.1719,6.1719,0.0,0.0,6.1719,6.1719,6.1719,6.1719,6.1719,6.1367,6.0586,5.9765,5.8984,5.8203,5.8086,5.7305,5.5742,5.5742,5.5351,5.4531,5.2617,5.1641,0.0,0.0,0.0,0.0,0.0,0.0,0.0,0.0,0.0,0.0,0.0,0.0,0.0,0.0,0.0,4.7305,4.8086,4.9101,5.0469,5.0664,5.0742,5.0898,5.1836,5.2734,5.3437,5.4453,5.5039,5.5039,5.6367,5.7226,5.7383,5.8047,5.8594,5.8945,5.8945,5.9023,5.9219,5.9219,5.9531,6.0156,0.0,0.0,6.1211,6.1211,6.1211,6.1211,6.1211,6.1211,6.1211,6.1211,6.1211,6.1094,5.9726,5.9219,5.9219,5.9219,5.9219,5.9297,5.9922,6.0156,6.0273,6.0976,6.1211,6.1211,6.1211,6.1211,0.0,6.1211,6.1328,6.1445,6.1445,6.1562,6.1719,6.1719,6.1719,6.1719,6.1719,6.1719,6.1719,6.1719,6.1719,6.1719,6.1719,6.1719,6.1719,6.1719,6.1719,6.1719,6.1719,6.1719,6.1719,6.1719,6.1719,6.1719,6.1719,6.1719,6.1719,6.1719,6.1719,6.1601,6.1445,6.0625,6.0078,5.9922,5.9297,5.8789,5.8437,5.8437,5.8359,5.8125,5.4961,5.3476,0.0,0.0,0.0,0.0,0.0,0.0,0.0,0.0,0.0,0.0,0.0,4.5273,4.6133,0.0,4.7734,4.8164,4.9336,5.043,5.1289,5.2148,5.2695,5.2695,5.3476,5.418,5.4609,5.582,5.6601,5.6601,5.7812,5.8555,5.8555,5.8945,5.9375,5.9805,5.9805,6.0,6.0469,6.0469,6.0664,6.1055,6.1055,6.1289,6.1719,6.1719,6.1719,6.1719,6.1719,6.1719,6.1719,6.1719,6.1719,6.1601,6.0781,6.0469,6.0469,6.0469,6.0469,6.0508,6.0898,6.1055,6.1133,6.1562,6.1719,6.1719,6.1719,6.1719,6.1719,6.1719,6.1719,6.1719,6.1719,6.1719,6.1719,6.1719,6.1719,6.1719,6.1719,6.1719,6.1836,6.2265,6.2344,6.25,6.293,6.3008,6.2695,6.1836,6.1719,6.1719,6.1719,6.1719,6.1719,6.1719,6.1719,6.1701,6.1712,6.1686,6.1635,6.1509,6.1633,6.168,6.1601,6.125,6.1055,6.1055,6.0664,6.0234,5.9805,5.9805,5.9609,5.914,5.7422,5.6601,0.0,0.0,0.0,0.0,0.0,0.0,0.0,4.3945,4.4219,4.5078,4.5391,4.5937,4.7344,4.7891,4.8398,4.9258,5.0664,5.1758,5.2109,5.3359,5.4375,5.4726,5.5234,5.5625,5.5781,5.7226,5.8164,5.8164,5.8945,5.9414,5.9414,5.9609,5.9961,6.0625,6.0664,6.0976,6.168,6.1719,6.1719,6.1719,6.1719,6.1719,6.1719,6.1719,6.1719,6.1719,6.1719,6.1719,6.1719,6.1719,6.1719,6.1719,6.1719,6.1719,6.1719,6.1719,6.1719,6.1719,6.1719,6.1719,6.1719,6.1719,6.1719,6.1719,6.1719,6.1719,6.1719,6.1719,6.1719,6.1758,6.1914,6.1953,6.1992,6.2148,6.2226,6.2226,6.2226,6.2226,6.2422,6.3125,6.3242,6.3476,6.418,6.4297,6.3828,6.2422,6.2226,6.2226,6.2226,6.2226,6.2226,6.2226,6.2226,6.2122,6.1918,6.1912,6.1726,6.134,6.151,6.1584,6.1484,6.1601,6.168,6.1719,6.1719,6.1367,6.0664,6.0664,6.0312,5.9687,5.9687,5.9492,4.1953,4.2539,4.3164,4.3359,4.3476,4.3789,0.0,0.0,4.5117,4.5976,4.6758,4.7383,4.7578,4.8867,5.0156,5.0976,5.1914,5.3086,5.4648,5.5039,5.5742,5.7265,5.6875,5.6758,5.7539,5.8476,5.9062,5.9062,5.9805,6.0273,6.0273,6.1015,6.1445,6.1562,6.1562,6.1601,6.1719,6.1719,6.1719,6.1719,6.1719,6.1719,6.1719,6.1719,6.1719,6.1719,6.1719,6.1719,6.1719,6.1719,6.1719,6.1719,6.1719,6.1719,6.1719,6.1719,6.1719,6.1719,6.1719,6.1719,6.1719,6.1719,6.1719,6.1719,6.1719,6.1719,6.1719,6.1719,6.1719,6.1875,6.2656,6.2851,6.3047,6.3828,6.4023,6.4023,6.4023,6.4023,6.4023,6.414,6.414,6.418,6.4297,6.4297,6.4219,6.4023,6.4023,6.4023,6.4023,6.4023,6.4023,6.4023,6.4023,6.3644,6.275,6.2695,6.2296,6.1343,6.1324,6.1405,6.1484,6.1523,6.1562,6.1719,6.1719,6.164,6.1562,6.1562,6.1523,6.1406,6.1406,6.0625,4.3164,4.3789,4.4453,4.4453,4.4844,4.5312,4.5664,4.5742,4.6016,4.6875,4.7344,4.7891,4.8945,5.0078,5.1172,0.0,5.332,5.4453,5.5195,5.6172,5.707,5.7812,5.8437,5.8789,5.8672,5.9414,5.9883,5.9883,6.0664,6.1172,6.1172,6.1484,6.1719,6.1719,6.1719,6.1719,6.1719,6.1719,6.1719,6.1719,6.1719,6.1719,6.1719,6.1719,6.1719,6.1719,6.1719,6.1719,6.1719,6.1719,6.1719,6.1719,6.1719,6.1719,6.1719,6.1719,6.1719,6.1719,6.1719,6.1719,6.1719,6.1719,6.2031,6.2461,6.2461,6.2812,6.3203,6.3203,6.3203,6.3281,6.3672,6.375,6.3867,6.4219,6.4297,6.4297,6.4297,6.4297,6.4453,6.4961,6.5078,6.5234,6.5742,6.582,6.582,6.582,6.4961,6.4297,6.4297,6.4297,6.4297,6.4297,6.4246,6.3992,6.343,6.3394,6.3091,6.2491,6.2651,6.2506,6.1977,6.2149,6.2031,6.1601,6.164,6.1719,6.1719,6.1719,6.1719,6.1719,6.1719,6.1328,4.4336,4.4883,4.5351,4.5351,4.582,4.6289,4.6289,4.6484,4.6836,4.7461,4.7969,4.8711,4.9961,5.1055,5.2031,5.293,5.4336,5.5469,5.5937,5.7109,5.8086,5.8515,5.9648,6.0273,5.9922,6.043,6.0742,6.0742,6.1328,6.1719,6.1719,6.1719,6.1719,6.1719,6.1719,6.1719,6.1719,6.1719,6.1719,6.1719,6.1719,6.1719,6.1719,6.1719,6.1719,6.1719,6.1719,6.1719,6.1719,6.1719,6.1836,6.207,6.207,6.2226,6.2422,6.2422,6.2265,6.207,6.207,6.2226,6.2422,6.2422,6.2851,6.3359,6.3359,6.3789,6.4297,6.4297,6.4297,6.4375,6.4609,6.4648,6.4726,6.4961,6.5039,6.5039,6.5039,6.5039,6.5195,6.5859,6.5976,6.6172,6.6797,6.6914,6.6914,6.6914,6.582,6.5039,6.5039,6.4974,6.4918,6.4918,6.4831,6.4579,6.41,6.4072,6.3858,6.332,6.3512,6.3383,6.269,6.2899,6.2758,6.2166,6.2263,6.2344,6.2344,6.2383,6.2422,6.2422,6.2422,6.2422,4.5976,4.625,4.625,4.625,4.6289,4.6289,4.6289,4.6953,4.7578,4.7578,4.8945,5.0156,5.0195,5.1562,5.2969,5.3828,5.4726,5.5898,5.7578,5.7851,5.8515,6.0117,6.0351,6.0703,0.0,6.164,6.164,6.164,6.168,6.1719,6.1719,6.1719,6.1719,6.1719,6.1719,6.1719,6.1719,6.1719,6.1719,6.1719,6.1719,6.1719,6.1719,6.1719,6.1719,6.1719,6.1719,6.1719,6.1719,6.1719,6.2187,6.2969,6.2969,6.3476,6.4219,6.4219,6.3672,6.2969,6.2969,6.3515,6.4219,6.4219,6.4258,6.4258,6.4258,6.4297,6.4297,6.4297,6.4297,6.4492,6.5351,6.5547,6.5781,6.6601,6.6836,6.6836,6.6836,6.6836,6.6836,6.6875,6.6875,6.6875,6.6914,6.6914,6.6914,6.6914,6.6836,6.6836,6.6836,6.6669,6.6511,6.6511,6.6415,6.5918,6.484,6.4768,6.4345,6.3358,6.332,6.3397,6.3526,6.3561,6.3613,6.3728,6.3915,6.4023,6.4023,6.414,6.4219,6.4219,6.4219,6.4219,4.6211,4.6289,4.6289,4.6289,4.6719,4.7148,4.7148,4.7851,4.8633,4.9219,5.0234,5.1172,5.1758,5.3242,5.4531,5.4805,5.5586,5.6562,5.7734,5.8398,5.918,6.0273,6.0898,0.0,0.0,0.0,0.0,6.1719,6.1719,6.1719,6.1719,6.1719,6.1719,6.1719,6.1719,6.1719,6.1719,6.1719,6.1719,6.1719,6.1719,6.1719,6.1719,6.1719,6.2031,6.2578,6.2578,6.289,6.3437,6.3437,6.3594,6.3867,6.3867,6.4023,6.4297,6.4297,6.4492,6.4648,6.4062,6.4062,6.4297,6.4297,6.4687,6.5156,6.5156,6.5586,6.6015,6.6015,6.6015,6.6094,6.6406,6.6445,6.6523,6.6836,6.6914,6.6914,6.6914,6.6914,6.6914,6.6914,6.6914,6.6914,6.6914,6.6914,6.6914,6.6914,6.6914,6.6914,6.6914,6.6733,6.6615,6.6615,6.6383,6.6058,6.5692,6.5551,6.5397,6.5051,6.5013,6.482,6.4282,6.4359,6.4185,6.3668,6.3959,6.4012,6.3904,6.4167,6.4258,6.418,6.4258,6.4297,4.6289,4.6289,4.6367,4.668,4.7187,4.7695,4.8008,4.875,4.9531,5.0078,5.0859,5.168,5.2539,5.3867,5.4922,5.5234,5.6289,5.7383,5.8242,5.9101,5.9922,6.0781,6.1367,6.1719,0.0,0.0,0.0,6.1719,6.1719,6.1719,6.1719,6.1719,6.1719,6.1719,6.1719,6.1719,6.1719,6.1719,6.1719,6.1719,6.2031,6.2148,6.2187,6.25,6.293,6.3476,6.3476,6.3789,6.4297,6.4297,6.4492,6.4765,6.4765,6.4961,6.5234,6.5234,6.5586,6.5937,6.5078,6.4961,6.5234,6.5234,6.5625,6.6055,6.6055,6.6445,6.6914,6.6914,6.6914,6.6914,6.6914,6.6914,6.6914,6.6914,6.6914,6.6914,6.6914,6.6914,6.6914,6.6914,6.6914,6.6914,6.6914,6.7148,6.7461,6.7734,6.7773,6.7578,6.6992,6.6732,6.6573,6.655,6.6269,6.609,6.6013,6.5936,6.5897,6.5897,6.5897,6.5628,6.5089,6.5166,6.4949,6.4436,6.468,6.4788,6.474,6.4987,6.51,6.5117,6.5195,6.5234,4.6289,4.6328,4.6562,4.7383,4.7656,4.7969,4.8789,4.9648,5.0273,5.0273,5.0898,5.1719,5.2539,5.3437,5.4336,5.5156,5.6719,5.8164,5.9062,5.9844,6.0664,0.0,0.0,0.0,0.0,0.0,0.0,6.1719,0.0,6.1719,6.1719,6.1719,6.1719,6.1719,6.1719,6.1719,6.1719,6.1758,6.1797,6.1836,6.2656,6.3086,6.3086,6.3906,6.4336,6.4375,6.4375,6.4375,6.4414,6.4414,6.4922,6.5664,6.5664,6.6172,6.6914,6.6914,6.6914,6.6797,6.5937,6.6211,6.6914,6.6914,6.6914,6.6914,6.6914,6.6914,6.6914,6.6914,6.6914,6.6953,6.6953,6.6992,6.7031,6.7031,6.7031,6.7031,6.7031,6.7031,6.7031,6.7031,6.7031,6.7031,6.7031,6.7734,6.8515,6.9297,6.9414,6.8828,6.7226,6.6836,6.6642,6.6476,6.6269,6.609,6.5897,6.5897,6.5897,6.5897,6.5897,6.5897,6.5897,6.5897,6.5897,6.5897,6.6013,6.62,6.6361,6.6531,6.6694,6.6874,6.6875,6.6875,4.6289,4.6758,4.7305,4.7539,4.8594,4.9609,4.9805,5.0508,5.1094,5.1094,5.1758,5.2422,5.2656,5.3945,5.5039,5.5273,5.6211,0.0,5.8984,5.9375,0.0,6.1523,0.0,6.1719,6.1719,6.1719,0.0,0.0,6.1719,6.1719,6.1719,6.1719,6.1719,6.1719,6.1719,6.1719,6.1719,6.2344,6.3008,6.3633,6.3867,6.3984,6.3984,6.4219,6.4648,6.5273,6.5273,6.5625,6.625,6.625,6.6367,6.6562,6.6562,6.6719,6.6914,6.6914,6.6914,6.6875,6.664,6.6719,6.6914,6.6914,6.6914,6.6914,6.6914,6.6914,6.6914,6.6914,6.7383,6.7851,6.7851,6.832,6.8789,6.8828,6.8828,6.8828,6.8789,6.8789,6.8828,6.8789,6.8789,6.8828,6.8828,6.8984,6.914,6.9375,6.9414,6.9258,6.8906,6.8541,6.8071,6.7441,6.7029,6.659,6.5936,6.5897,6.5897,6.5897,6.5897,6.5897,6.5897,6.5897,6.5897,6.5897,6.6013,6.6073,6.6019,6.6299,6.6464,6.6546,6.6628,6.6758,4.6758,4.7226,4.7773,4.8555,4.9492,5.0273,5.0664,5.1094,5.1406,5.1406,5.1797,5.2266,5.2617,5.3828,5.4844,0.0,0.0,0.0,5.9023,5.9492,6.0234,0.0,6.1719,0.0,6.1719,6.1719,6.1719,0.0,6.1719,6.1719,6.1719,6.1719,6.1719,6.1719,6.207,6.2461,6.2851,6.332,6.3828,6.4297,6.4687,6.4883,6.4883,6.5273,6.5703,6.6172,0.0,6.6445,6.6914,6.6914,6.6914,6.6914,6.6914,6.7148,6.7461,6.7461,6.7695,6.8047,6.8008,6.8008,6.7969,6.7578,6.7734,6.8047,6.8008,6.8008,6.8008,6.8047,6.8359,6.8711,6.8711,6.9062,6.9414,6.9492,6.9492,6.9492,6.9414,6.9453,6.9492,6.9453,6.9453,6.9609,6.9961,6.9933,7.0025,7.0466,7.0469,7.0416,7.0442,6.9623,6.8801,6.8161,6.7888,6.7552,6.7051,6.7013,6.7013,6.7013,6.7013,6.6821,6.6436,6.6436,6.6244,6.5897,6.5974,6.5974,6.5974,6.6281,6.6436,6.6493,6.6667,6.6797,4.7226,4.7617,4.8125,4.9648,5.0195,5.0547,5.125,5.1406,5.1406,5.1406,5.1406,5.1641,5.2383,5.3242,5.4101,5.5,5.6484,5.793,5.9023,5.9805,6.0586,6.1562,6.1719,6.1719,6.1719,6.1719,6.1719,6.1719,6.1719,6.1719,6.1719,6.1797,6.1914,6.2031,6.2773,6.3594,6.4453,6.4453,6.4531,6.4648,6.539,6.5781,6.5781,6.6562,6.6914,6.6914,0.0,0.0,6.6914,6.6914,6.6953,6.707,6.707,6.7617,6.8359,6.8359,6.8828,6.9492,6.9414,6.9492,6.9531,6.8633,6.8867,6.9492,6.9414,6.9414,6.9414,6.9492,6.9531,6.957,6.957,6.9648,6.9765,6.9805,6.9844,6.9805,6.9765,6.9805,6.9844,6.9844,6.9844,7.0039,7.0742,7.0751,7.0982,7.1819,7.1786,7.1667,7.1621,7.0371,6.9333,6.8833,6.8756,6.8667,6.8436,6.8398,6.8398,6.8398,6.8398,6.8052,6.7282,6.7282,6.6936,6.6244,6.6244,6.6282,6.6397,6.6551,6.6742,6.6939,6.7071,6.7186,4.6484,4.7578,4.875,4.9062,5.0156,5.1211,5.1367,5.1406,5.1406,5.1406,5.1406,5.1445,5.1601,5.2344,5.3203,5.4062,5.5078,5.6562,5.8867,5.9336,5.9961,6.1523,6.1719,6.1719,6.1719,6.1719,0.0,0.0,0.0,6.1719,6.1719,6.2383,6.3086,6.3828,6.3984,6.4492,6.5351,6.5351,6.5742,6.6445,6.6601,6.668,6.668,6.6836,6.6914,6.6914,6.6914,0.0,6.6914,6.6914,6.7305,6.7969,6.7969,6.8515,6.9258,6.9219,6.9336,6.9492,6.9414,6.9883,7.0351,6.9492,6.9297,6.9414,6.9453,6.9492,6.9492,6.9492,6.9961,7.0469,7.0469,7.1015,7.1562,7.1562,7.1562,7.1562,7.1562,7.1562,7.1562,7.1562,7.1562,7.1601,7.1758,7.1622,7.1544,7.1727,7.1653,7.1451,7.1313,7.1168,7.0706,6.9809,6.959,6.9206,6.8475,6.8398,6.8398,6.8398,6.8398,6.8321,6.8167,6.8167,6.8129,6.7975,6.7975,6.7975,6.8013,6.8052,6.8226,6.8497,6.8538,6.8723,4.6836,4.7578,4.832,4.8789,4.9492,5.0117,5.0117,5.0117,5.0117,5.0117,5.0117,5.0117,5.0117,5.1133,5.2148,5.2578,5.4141,5.6055,5.8203,5.8906,5.9805,6.1484,6.1719,6.1719,6.1719,6.1719,6.1719,0.0,0.0,6.2383,6.2383,6.3203,6.4062,6.4961,6.4961,6.539,6.6289,6.6289,6.6484,6.6914,6.6914,6.6914,6.6914,6.6914,6.6914,6.6914,6.7383,0.0,6.7617,6.8086,6.8515,6.8867,6.8828,6.9375,7.0117,7.0078,7.039,7.0781,7.0742,7.1015,7.1328,7.0898,7.0742,7.0742,7.0781,7.0781,7.0781,7.0781,7.1094,7.1367,7.1367,7.168,7.1992,7.1992,7.1992,7.1992,7.1992,7.1992,7.1992,7.1992,7.1992,7.1978,7.1874,7.1702,7.1601,7.1595,7.1448,7.1308,7.1222,7.1283,7.1091,7.0475,7.036,7.0167,6.9744,6.9706,6.9706,6.9706,6.9706,6.9513,6.909,6.909,6.8859,6.8398,6.8398,6.8398,6.8398,6.8475,6.8651,6.8917,6.9021,6.9234,4.7148,4.7461,4.7773,4.8437,4.875,4.8906,4.8906,4.8906,4.8906,4.8906,4.8906,4.8906,4.8906,5.0117,5.1211,5.1367,5.3437,5.5625,5.7383,5.8515,5.9765,6.125,6.1601,6.1719,6.1719,6.1719,0.0,0.0,0.0,0.0,6.3555,6.4219,6.4961,6.5859,6.5898,6.6211,6.6875,6.6914,6.6914,6.6914,6.6914,6.6914,6.6914,6.6914,6.6992,6.7226,6.789,0.0,0.0,6.9219,6.9609,6.9765,6.9687,7.0195,7.0976,7.0976,7.1406,7.1992,7.1992,7.1992,7.1992,7.1992,7.1992,7.1992,7.1992,7.1992,7.1992,7.1992,7.1992,7.1992,7.1992,7.1992,7.1992,7.1992,7.1992,7.1992,7.1992,7.1992,7.1992,7.1992,7.1978,7.1877,7.1723,7.1567,7.1417,7.1467,7.1245,7.1129,7.1129,7.1129,7.1091,7.0937,7.0898,7.0898,7.0898,7.0898,7.0898,7.0898,7.0898,7.0629,6.9975,6.9975,6.9629,6.8936,6.8936,6.8936,6.8936,6.9052,6.9244,6.9489,6.9606,6.9838,4.6406,4.6992,4.7617,4.7695,4.832,4.8906,4.8906,4.8906,4.8906,4.8906,4.8906,4.8906,4.8906,4.9687,5.0547,5.1289,5.293,5.4726,5.6484,5.8164,5.9531,6.039,6.1211,6.1719,6.1719,6.1719,0.0,0.0,0.0,0.0,6.5351,6.543,6.5898,6.6758,6.6797,6.6836,6.6914,6.6914,6.6914,6.6914,6.6914,6.6914,6.6914,6.6914,6.7344,6.8086,6.8164,0.0,0.0,6.9414,6.9883,7.0586,7.0586,7.1094,7.1875,7.1875,7.1914,7.1992,7.1992,7.1992,7.1992,7.1992,7.1992,7.1992,7.1992,7.1992,7.1992,7.1992,7.1992,7.1992,7.1992,7.1992,7.1992,7.1992,7.1992,7.1992,7.1992,7.1992,7.1992,7.1992,7.1848,7.1737,7.1722,7.1441,7.121,7.1233,7.1052,7.0937,7.0937,7.0937,7.0937,7.0898,7.0898,7.0898,7.0898,7.0898,7.0898,7.0898,7.0898,7.086,7.0783,7.0783,7.0744,7.0667,7.0667,7.0667,7.0667,7.0667,7.0898,7.1233,7.1292,7.1472,4.6289,4.6562,4.6836,4.6836,4.707,4.7344,4.7344,4.7344,4.7344,4.7344,4.7344,4.7344,4.7344,4.8047,4.8906,4.9766,5.1758,5.3828,5.5586,5.7773,5.9492,6.0312,6.1172,6.1719,0.0,0.0,0.0,0.0,0.0,0.0,6.6367,6.6367,6.6523,6.6875,6.6914,6.6914,6.6914,6.6914,6.6914,6.6914,6.6914,6.7187,6.7695,6.7695,6.8164,6.9023,6.9492,0.0,0.0,7.0742,7.1172,7.1484,7.1484,7.168,7.1992,7.1992,7.1992,7.1992,7.1992,7.1992,7.1992,7.1992,7.1992,7.1992,7.1992,7.1992,7.1992,7.1992,7.1992,7.1992,7.1992,7.1992,7.1992,7.1992,7.1992,7.1992,7.1992,7.1992,7.1975,7.1846,7.1733,7.1657,7.1426,7.1283,7.1168,7.1052,7.0937,7.0898,7.0898,7.0898,7.0898,7.0898,7.0898,7.0898,7.0898,7.0898,7.0898,7.0898,7.0898,7.0898,7.0898,7.1014,7.1014,7.0898,7.1014,7.1014,7.0898,7.0898,7.1091,7.1503,7.1511,7.1681,4.6289,4.6289,4.6289,4.6289,4.6289,4.6289,4.6289,4.6289,4.6289,4.6289,4.6289,4.6289,4.6289,4.6992,4.7891,4.875,5.1055,5.3203,5.4726,5.7383,5.9414,5.9961,6.1015,6.1719,0.0,6.2187,0.0,0.0,0.0,0.0,6.6875,6.6914,6.6914,6.6914,6.6914,6.6914,6.6914,6.6914,6.7031,6.7265,6.7265,6.7734,6.8555,6.8555,6.9023,6.9883,0.0,0.0,0.0,7.1758,7.1992,7.1992,7.1992,7.1992,7.1992,7.1992,7.1992,7.1992,7.1992,7.1992,7.1992,7.1992,7.1992,7.1992,7.1992,7.1992,7.1992,7.1992,7.1992,7.1992,7.1992,7.1992,7.1992,7.1992,7.1992,7.1992,7.1992,7.1992,7.1948,7.1757,7.1657,7.1541,7.1245,7.1129,7.1052,7.0937,7.0898,7.0898,7.0898,7.0898,7.0898,7.0898,7.0898,7.0898,7.0898,7.0898,7.0898,7.0898,7.0898,7.0898,7.0898,7.1052,7.1052,7.0975,7.1052,7.1052,7.0975,7.0937,7.1091,7.1387,7.1472,7.1681,4.6289,4.6289,4.6289,4.6289,4.6289,4.6289,4.6289,4.6289,4.6289,4.6289,4.6289,4.6289,4.6289,4.6992,4.7891,4.875,5.1055,5.3008,5.3906,5.6992,5.9219,5.9219,6.0664,6.1719,6.1719,6.3242,0.0,0.0,0.0,0.0,6.6914,6.6914,6.6914,6.6914,6.6914,6.6914,6.6914,6.6914,6.7344,6.8203,6.8203,6.8594,6.9375,6.9375,6.9844,0.0,0.0,0.0,0.0,7.1992,7.1992,7.1992,7.1992,7.1992,7.1992,7.1992,7.1992,7.1992,7.1992,7.1992,7.1992,7.1992,7.1992,7.1992,7.1992,7.1992,7.1992,7.1992,7.1992,7.1992,7.1992,7.1992,7.1992,7.1992,7.1992,7.1992,7.1992,7.1992,7.1948,7.1757,7.158,7.1464,7.1206,7.1014,7.0898,7.0898,7.0898,7.0898,7.0898,7.0898,7.0898,7.0898,7.0898,7.0898,7.0898,7.0898,7.0898,7.0898,7.0898,7.0898,7.0898,7.0898,7.1014,7.1168,7.1014,7.1014,7.1206,7.1014,7.1014,7.1195,7.1395,7.1681,4.6289,4.6289,4.6289,4.6289,4.6289,4.6289,4.6289,4.6289,4.6289,4.6289,4.6289,4.6289,4.6289,4.6992,4.7891,4.875,5.1055,5.3008,5.3867,5.6992,5.9219,5.9219,6.0664,6.1914,0.0,0.0,0.0,0.0,0.0,0.0,6.6914,6.6914,6.6914,6.6914,6.6914,6.6914,6.6914,6.75,6.793,6.8203,6.875,6.9453,7.0273,7.0273,0.0,0.0,0.0,0.0,0.0,7.1992,7.1992,7.1992,7.1992,7.1992,7.1992,7.1992,7.1992,7.1992,7.1992,7.1992,7.1992,7.1992,7.1992,7.1992,7.1992,7.1992,7.1992,7.1992,7.1992,7.1992,7.1992,7.1992,7.1992,7.1992,7.1992,7.1992,7.1992,7.1887,7.1765,7.1589,7.1418,7.1206,7.1014,7.0937,7.0898,7.0898,7.0898,7.0898,7.0898,7.0898,7.0898,7.0898,7.0898,7.0898,7.0898,7.0898,7.0898,7.0898,7.0898,7.0898,7.0898,7.1014,7.1052,7.1014,7.1052,7.1129,7.1206,7.1129,7.1245,7.1568,7.1755,7.1903,4.6289,4.6289,4.6289,4.6289,4.6289,4.6289,4.6289,4.6289,4.6289,4.6289,4.6289,4.6289,4.6289,4.6992,4.7891,4.875,5.1055,5.3125,5.4336,5.7226,5.9414,6.0078,6.1055,0.0,0.0,0.0,0.0,0.0,0.0,0.0,6.6914,6.6914,6.7031,6.7383,6.7383,6.7383,6.7383,6.8242,6.8828,6.914,6.9648,7.0351,7.1172,7.1172,0.0,0.0,0.0,0.0,0.0,7.1992,7.1992,7.1992,7.1992,7.1992,7.1992,7.1992,7.1992,7.1992,7.1992,7.1992,7.1992,7.1992,7.1992,7.1992,7.1992,7.1992,7.1992,7.1992,7.1992,7.1992,7.1992,7.1992,7.1992,7.1992,7.1953,7.1877,7.1877,7.1753,7.1584,7.1417,7.1317,7.1129,7.0937,7.0898,7.0898,7.0898,7.0898,7.0898,7.0898,7.0898,7.0898,7.0898,7.0898,7.0898,7.0898,7.0898,7.0898,7.0898,7.0898,7.0898,7.0898,7.1014,7.1091,7.1129,7.1168,7.1245,7.1387,7.1347,7.1424,7.164,7.1782,7.193,0.0,4.6289,4.6289,4.6289,4.6289,4.6289,4.6289,4.6289,0.0,4.6289,4.6289,4.6328,4.6367,4.7109,4.8008,4.8945,5.1172,5.3398,5.5156,5.7656,5.9883,6.1523,6.1758,0.0,0.0,0.0,0.0,0.0,0.0,0.0,6.6914,6.6953,6.7344,6.8164,6.832,6.8359,6.8281,6.9101,6.9883,7.0703,7.0742,7.1211,7.1992,7.1992,0.0,0.0,0.0,0.0,0.0,7.1992,7.1992,7.1992,7.1992,7.1992,7.1992,7.1992,7.1992,7.1992,7.1992,7.1992,7.1992,7.207,7.2148,7.2187,7.2109,7.2031,7.1992,7.1992,7.1992,7.1992,7.1992,7.1992,7.1992,7.1992,7.186,7.1695,7.1695,7.157,7.1409,7.1223,7.1168,7.1129,7.0937,7.0898,7.0898,7.0898,7.0898,7.0898,7.0898,7.0898,7.0898,7.0898,7.0898,7.0898,7.0898,7.0898,7.0898,7.0898,7.0898,7.0898,7.0898,7.0898,7.1091,7.1464,7.1299,7.1376,7.1695,7.1591,7.1549,7.155,7.1683,7.1808,4.6289,0.0,4.6289,4.6289,4.6289,4.6289,0.0,4.6289,4.6289,4.6289,4.6289,4.6484,4.7187,4.8008,4.9062,5.0586,5.2422,5.4297,5.6055,5.8515,6.0508,6.1562,6.2305,6.3047,0.0,0.0,0.0,0.0,0.0,6.6914,6.6914,6.7539,6.8008,6.8203,6.9453,6.9805,6.9101,6.9961,7.0508,7.0703,7.1367,7.1797,7.1992,7.1992,0.0,0.0,0.0,0.0,7.1992,7.1992,7.1992,7.1992,7.1992,7.1992,7.1992,7.1992,7.1992,7.1992,7.1992,7.1992,7.2109,7.2773,7.3437,7.3867,7.3203,7.2539,7.1992,7.1992,7.1992,7.1992,7.1992,7.1992,7.1992,7.1992,7.186,7.1695,7.1695,7.1454,7.126,7.1222,7.1091,7.0975,7.0898,7.0898,7.0898,7.0898,7.0898,7.0898,7.0898,7.0898,7.0898,7.0898,7.0898,7.0898,7.0898,7.0898,7.0898,7.0898,7.0898,7.0898,7.0898,7.0898,7.0937,7.1052,7.1299,7.1513,7.1695,7.1814,7.1892,7.1897,7.1909,7.1967,4.6289,4.6289,4.6289,4.6289,4.6289,4.6289,4.6289,4.6289,4.6406,4.6797,4.6914,4.7148,4.8047,4.9219,5.0351,5.125,5.3516,5.5937,5.8047,5.9883,6.1172,6.164,6.2461,6.3359,0.0,0.0,0.0,0.0,0.0,6.707,6.7461,6.793,6.8555,6.9336,7.0234,7.0469,7.0,7.0859,7.1289,7.1289,7.1758,7.1992,7.1992,7.1992,7.1992,0.0,0.0,0.0,7.1992,7.1992,7.1992,7.1992,7.1992,7.1992,7.1992,7.1992,7.2265,7.2617,7.2617,7.2851,7.3281,7.375,7.4219,7.4492,7.4023,7.3555,7.3047,7.2226,7.1992,7.1992,7.1992,7.1992,7.1992,7.1992,7.1778,7.1617,7.1595,7.1321,7.1052,7.1052,7.0975,7.0898,7.0898,7.0898,7.0898,7.0898,7.0898,7.0898,7.0898,7.0898,7.0898,7.0898,7.0898,7.0898,7.0898,7.0898,7.0898,7.0898,7.0898,7.0898,7.0898,7.0898,7.0937,7.1052,7.1379,7.1587,7.1618,7.1862,7.1938,7.1848,7.1971,7.1992,4.6289,4.6289,4.6289,4.6289,4.6289,4.6289,4.6289,4.6406,4.6719,4.7461,4.7695,4.8086,4.9101,5.043,5.1562,5.2109,5.5,5.793,6.0117,6.1133,6.1758,6.1875,6.2656,0.0,0.0,0.0,0.0,0.0,0.0,6.7422,6.8164,6.8437,6.9219,7.0664,7.082,7.0898,7.0898,7.164,7.1992,7.1992,7.1992,7.1992,7.1992,7.1992,7.1992,0.0,0.0,0.0,7.1992,7.1992,7.1992,7.1992,7.1992,7.1992,7.2031,7.2148,7.2656,7.332,7.3437,7.4062,7.4805,7.4805,7.4883,7.4961,7.4844,7.4805,7.4453,7.2851,7.2383,7.2383,7.2383,7.2383,7.2382,7.2362,7.2101,7.187,7.1827,7.1552,7.1283,7.1283,7.1283,7.1283,7.1283,7.1283,7.1245,7.1129,7.1091,7.1052,7.0937,7.0898,7.0898,7.0898,7.0898,7.0898,7.0898,7.0898,7.0898,7.0898,7.0898,7.0898,7.0898,7.0898,7.0975,7.1206,7.151,7.1633,7.1533,7.1831,7.1901,7.175,7.1916,7.1992,4.6289,4.6289,4.6289,4.6289,4.6289,4.6289,4.6289,4.6875,4.7422,4.7578,4.8203,4.918,5.0742,5.1211,5.2383,5.5312,5.8047,5.9961,6.0351,6.1133,6.1953,6.2695,0.0,0.0,0.0,0.0,0.0,0.0,0.0,0.0,0.0,6.9531,7.043,7.0703,7.1406,7.1797,7.1797,7.1914,7.1992,7.1992,7.1992,7.1992,7.1992,7.1992,7.1992,7.1992,0.0,7.1992,7.1992,7.1992,7.1992,7.1992,7.1992,7.1992,7.2109,7.2812,7.3203,7.3398,7.414,7.4961,7.5703,7.5703,7.6211,7.664,7.5937,7.5703,7.5508,7.4492,7.4219,7.4219,7.4219,7.4219,7.4154,7.3992,7.3801,7.3579,7.3381,7.3245,7.3091,7.3091,7.3091,7.3091,7.3091,7.3091,7.286,7.2091,7.2014,7.1745,7.0975,7.0898,7.0898,7.0898,7.0898,7.0898,7.0898,7.0898,7.0898,7.0898,7.0898,7.0898,7.0898,7.0898,7.0975,7.1206,7.1414,7.1581,7.1655,7.1872,7.1989,7.1967,7.1989,7.1992,4.6289,4.6289,4.6406,4.6875,4.6992,4.6992,4.6992,4.7695,4.8437,4.8906,4.9687,5.0625,5.1875,5.3242,5.5195,5.8164,5.9648,6.0547,6.1055,6.1445,6.2031,0.0,0.0,0.0,0.0,0.0,0.0,0.0,0.0,0.0,0.0,0.0,7.0937,7.1406,7.1797,7.1992,7.1992,7.1992,7.1992,7.1992,7.1992,7.1992,7.1992,7.1992,7.1992,7.1992,0.0,7.1992,7.1992,7.1992,7.1992,7.2031,7.2539,7.2695,7.2851,7.4219,7.4687,7.4844,7.5703,7.6289,7.6601,7.6601,7.6875,7.7148,7.6719,7.6601,7.6523,7.6133,7.5312,7.4561,7.4483,7.446,7.4373,7.4168,7.3988,7.3798,7.3724,7.3591,7.3514,7.3514,7.3514,7.3514,7.3514,7.3514,7.336,7.2976,7.2899,7.2745,7.236,7.2322,7.2322,7.2322,7.2322,7.2129,7.1629,7.1591,7.1398,7.0937,7.0898,7.0898,7.0898,7.0898,7.0937,7.1052,7.1245,7.1394,7.1597,7.1749,7.1875,7.1992,7.1992,7.1992,4.6289,4.6445,4.6758,4.7422,4.7617,4.7656,4.7851,4.8711,4.9687,5.0351,5.1289,5.2344,5.3437,5.5742,5.8125,6.0078,6.0586,6.0937,6.1601,6.1875,0.0,0.0,0.0,0.0,0.0,0.0,0.0,0.0,0.0,0.0,0.0,0.0,7.1328,7.1992,7.1992,7.1992,7.1992,7.1992,7.1992,7.1992,7.1992,7.1992,7.1992,7.1992,7.1992,7.1992,7.1992,7.2109,7.2305,7.2305,7.2422,7.2695,7.3359,7.3711,7.4062,7.539,7.6015,7.6289,7.6953,7.7187,7.7187,7.7187,7.7187,7.7187,7.7187,7.7187,7.7187,7.7187,7.625,7.5165,7.4973,7.4909,7.4857,7.4596,7.4417,7.4322,7.4245,7.4168,7.4091,7.4091,7.4091,7.4091,7.4091,7.4091,7.4014,7.3822,7.3783,7.3707,7.3514,7.3514,7.3514,7.3514,7.3514,7.3245,7.2552,7.2514,7.2129,7.1245,7.1014,7.0898,7.0898,7.0898,7.0898,7.0898,7.1091,7.1309,7.1503,7.1636,7.1797,7.1992,7.1992,7.1992,4.6289,4.6875,4.7539,4.7578,4.7617,4.7812,4.8633,5.0078,5.125,5.1289,5.2656,5.4336,5.6015,5.8398,6.0195,6.0351,6.1094,6.164,6.168,0.0,0.0,0.0,0.0,0.0,0.0,0.0,0.0,0.0,0.0,0.0,0.0,0.0,0.0,7.1992,7.1992,7.1992,7.1992,7.1992,7.1992,7.1992,7.1992,7.1992,7.1992,7.1992,7.1992,7.1992,7.1992,7.2461,7.3203,7.3203,7.3672,7.4414,7.4492,7.5,7.5742,7.5859,7.6406,7.7109,7.7187,7.7187,7.7187,7.7187,7.7187,7.7187,7.7187,7.7187,7.7187,7.7187,7.7109,7.6966,7.6775,7.6736,7.6621,7.6255,7.6149,7.6053,7.5861,7.5822,7.5822,7.5822,7.5822,7.5822,7.5822,7.5822,7.5553,7.4745,7.463,7.4361,7.3591,7.3514,7.3514,7.3514,7.3514,7.3476,7.3399,7.3399,7.3014,7.2168,7.136,7.0898,7.0898,7.0898,7.0898,7.0898,7.1091,7.1272,7.1506,7.1651,7.1797,7.1992,7.1992,7.1992,4.6289,4.6953,4.7851,4.8945,4.9609,5.0039,5.0391,5.1367,5.2539,5.3594,5.4765,5.6289,5.8555,5.9765,6.0586,6.1133,6.1484,6.1875,0.0,0.0,0.0,0.0,0.0,0.0,0.0,0.0,0.0,0.0,0.0,0.0,0.0,0.0,0.0,7.1992,7.1992,7.1992,7.1992,7.1992,7.1992,7.1992,7.1992,7.1992,7.1992,7.1992,7.2305,7.2812,7.2812,7.3281,7.4101,7.4101,7.4297,7.4648,7.5195,7.5937,7.664,7.6094,7.6094,7.6328,7.5781,7.5586,7.5586,7.5586,7.5937,7.6406,7.6406,7.6758,7.7187,7.7187,7.7121,7.6962,7.6769,7.6712,7.6621,7.6207,7.6092,7.6092,7.6015,7.6015,7.6015,7.6015,7.6015,7.6015,7.6015,7.6015,7.5899,7.5553,7.5515,7.5399,7.5091,7.5053,7.5053,7.5053,7.4591,7.4245,7.4245,7.3783,7.336,7.3014,7.2206,7.1475,7.0937,7.0898,7.0898,7.0898,7.0975,7.1091,7.131,7.1481,7.1675,7.1836,7.1953,7.1992,4.6289,4.7148,4.8281,4.9492,5.082,5.1875,5.2148,5.2891,5.3945,5.539,5.6836,5.832,6.0078,6.0625,6.1015,6.1601,6.1914,0.0,0.0,0.0,0.0,0.0,0.0,0.0,0.0,0.0,0.0,0.0,0.0,0.0,0.0,0.0,0.0,0.0,7.1992,7.1992,7.1992,7.1992,7.2148,7.2422,7.2422,7.2422,7.2422,7.2422,7.289,7.3711,7.3711,7.4219,7.5,7.5,7.5156,7.5469,7.6094,7.6523,7.6719,7.6133,7.5742,7.539,7.4805,7.4609,7.4609,7.4609,7.5,7.5547,7.582,7.6328,7.6833,7.7036,7.7021,7.685,7.6591,7.6505,7.6399,7.6092,7.6015,7.6015,7.6015,7.6015,7.6015,7.6015,7.6015,7.6015,7.6015,7.6015,7.6015,7.6015,7.6015,7.6015,7.6015,7.6015,7.6015,7.6015,7.5476,7.513,7.513,7.463,7.4168,7.3899,7.3322,7.2476,7.136,7.1321,7.1168,7.0898,7.0898,7.1014,7.1206,7.1373,7.1549,7.1719,7.1914,7.1992,4.6328,4.7578,4.8906,4.8945,5.0859,5.2969,5.3828,5.4687,5.5547,5.6445,5.8633,6.039,6.039,6.1133,6.1719,6.1719,6.2422,0.0,0.0,0.0,0.0,0.0,0.0,0.0,0.0,0.0,0.0,0.0,0.0,0.0,0.0,0.0,0.0,0.0,7.1992,7.1992,7.1992,7.1992,7.2461,7.3281,7.332,7.332,7.332,7.332,7.3789,7.4609,7.4609,7.5117,7.5898,7.5898,7.6406,7.7187,7.7187,7.668,7.5898,7.5898,7.5351,7.4609,7.457,7.457,7.457,7.457,7.457,7.4765,7.5625,7.5898,7.6028,7.6722,7.689,7.6813,7.6399,7.6284,7.6245,7.6053,7.6015,7.6015,7.6015,7.6015,7.6015,7.6015,7.6015,7.6015,7.6015,7.6015,7.6015,7.6015,7.6015,7.6015,7.6015,7.6015,7.6015,7.6015,7.6015,7.6015,7.6015,7.6015,7.563,7.4784,7.4707,7.3976,7.2283,7.2206,7.1783,7.0937,7.0898,7.1014,7.1206,7.1426,7.1568,7.1719,7.1914,7.1992,4.7031,4.8047,4.9336,5.1133,5.2617,5.4141,5.625,5.6484,5.6797,5.8867,6.0351,6.1328,6.1328,6.1523,0.0,0.0,0.0,0.0,0.0,0.0,0.0,0.0,0.0,0.0,0.0,0.0,0.0,0.0,0.0,0.0,0.0,0.0,0.0,0.0,7.1992,7.1992,7.1992,7.2617,7.3047,7.332,7.3906,7.4219,7.4219,7.4219,7.4687,7.5508,7.5508,7.6015,7.6797,7.6797,7.6953,7.7187,7.7187,7.668,7.582,7.5195,7.4414,7.3594,7.2969,7.2773,7.2773,7.2773,7.3203,7.3867,7.4726,7.5299,7.5869,7.6657,7.6698,7.6438,7.6322,7.6207,7.6053,7.6015,7.6015,7.6015,7.6015,7.6015,7.6015,7.6015,7.6015,7.6015,7.6015,7.6015,7.6015,7.6015,7.6015,7.6015,7.6015,7.6015,7.6015,7.6015,7.6015,7.6015,7.6015,7.6015,7.5899,7.563,7.563,7.4861,7.3168,7.2514,7.2091,7.1822,7.1206,7.0937,7.0975,7.1321,7.1528,7.1585,7.1861,7.1992,4.7344,4.8242,4.9414,5.1641,5.3086,5.4765,5.7734,5.8242,5.8555,6.0078,6.1094,6.1719,6.1719,6.1992,0.0,0.0,0.0,0.0,0.0,0.0,0.0,0.0,0.0,0.0,0.0,0.0,0.0,0.0,0.0,0.0,0.0,0.0,0.0,0.0,7.2344,7.2539,7.2539,7.3398,7.3984,7.4336,7.4883,7.5312,7.5625,7.5273,7.5586,7.6406,7.6406,7.6719,7.7187,7.7187,7.7187,7.7187,7.6836,7.6133,7.5273,7.4414,7.3515,7.2695,7.2187,7.1992,7.1992,7.1992,7.2344,7.3008,7.4219,7.482,7.5293,7.6438,7.6544,7.6284,7.6207,7.6092,7.6015,7.6015,7.6015,7.6015,7.6015,7.6015,7.6015,7.6015,7.6015,7.6015,7.6015,7.6015,7.6015,7.6015,7.6015,7.6015,7.6015,7.6015,7.6015,7.6015,7.6015,7.6015,7.6015,7.6015,7.6015,7.6015,7.6015,7.5553,7.4553,7.3668,7.286,7.2206,7.1668,7.1245,7.0898,7.1206,7.1402,7.1523,7.1768,7.1914,4.7461,4.8281,4.9336,5.1172,5.3086,5.5312,5.8476,5.9883,6.0508,6.0508,6.1133,6.1719,6.1797,6.2461,0.0,0.0,0.0,0.0,0.0,0.0,0.0,0.0,0.0,0.0,0.0,0.0,0.0,0.0,0.0,0.0,0.0,0.0,0.0,7.2109,7.289,7.3359,7.3437,7.4297,7.5117,0.0,7.5976,7.6445,7.7187,7.6367,7.6445,7.7187,7.7187,7.7187,7.7187,7.7187,7.7187,7.7109,7.625,7.5351,7.4492,7.3633,7.2734,7.1992,7.1992,7.1992,7.1992,7.1992,7.1992,7.2304,7.4056,7.4428,7.461,7.6159,7.6399,7.6207,7.6053,7.6015,7.6015,7.6015,7.6015,7.6015,7.6015,7.6015,7.6015,7.6015,7.6015,7.6015,7.6015,7.6015,7.6015,7.6015,7.6015,7.6015,7.6015,7.6015,7.6015,7.6015,7.6015,7.6015,7.6015,7.6015,7.6015,7.6015,7.6015,7.6015,7.6015,7.5168,7.3976,7.2437,7.2283,7.1822,7.1014,7.1129,7.1302,7.152,7.1646,7.1797,4.8203,4.875,4.9648,5.2695,5.5781,5.8281,5.9023,6.0351,6.1406,6.1406,6.1562,6.1914,6.2578,0.0,0.0,0.0,0.0,0.0,0.0,0.0,0.0,0.0,0.0,0.0,0.0,0.0,0.0,0.0,0.0,0.0,0.0,0.0,0.0,7.3008,7.3203,7.3633,7.4297,7.5195,7.5703,0.0,7.6601,7.7031,7.7187,7.6992,7.7031,7.7187,7.7187,7.7187,7.7187,7.7187,7.7187,7.7109,7.625,7.5351,7.4492,7.3633,7.2734,7.1992,7.1992,7.1992,7.1992,7.1992,7.1992,7.2294,7.3858,7.4206,7.4402,7.5952,7.6207,7.6053,7.6015,7.6015,7.6015,7.6015,7.6015,7.6015,7.6015,7.6015,7.6015,7.6015,7.6015,7.6015,7.6015,7.6015,7.6015,7.6015,7.6015,7.6015,7.6015,7.6015,7.6015,7.6015,7.6015,7.6015,7.6015,7.6015,7.6015,7.6015,7.6015,7.6015,7.6015,7.5168,7.4553,7.4168,7.286,7.2091,7.1898,7.1437,7.1287,7.1502,7.1636,7.1797,4.8437,4.8906,4.9726,5.3164,5.6601,5.9219,5.9219,6.0508,6.1719,6.1719,6.1719,6.1953,0.0,0.0,0.0,0.0,0.0,0.0,0.0,0.0,0.0,0.0,0.0,0.0,0.0,0.0,0.0,0.0,0.0,0.0,0.0,7.2383,7.2812,7.3281,7.4101,7.4765,7.5234,7.6094,7.6523,7.6523,7.6992,7.7187,7.7187,7.7187,7.7187,7.7187,7.7187,7.7187,7.7187,7.7187,7.7187,7.707,7.5781,7.5,7.4453,7.3164,7.2383,7.1992,7.1992,7.1992,7.1992,7.1992,7.1943,7.2166,7.3819,7.4076,7.4215,7.5859,7.6169,7.6015,7.6015,7.6015,7.6015,7.6015,7.6015,7.6015,7.6015,7.6015,7.6015,7.6015,7.6015,7.6015,7.6015,7.6015,7.6015,7.6015,7.6015,7.6015,7.6015,7.6015,7.6015,7.6015,7.6015,7.6015,7.6015,7.6015,7.6015,7.6015,7.6015,7.6015,7.6015,7.5553,7.513,7.4707,7.386,7.3014,7.2206,7.186,7.1552,7.1349,7.155,7.1694,4.8242,4.9101,5.0273,5.3242,5.6601,5.9219,5.9219,6.0508,6.1719,6.1719,6.1719,6.1992,0.0,0.0,0.0,0.0,0.0,0.0,0.0,0.0,0.0,0.0,0.0,0.0,0.0,0.0,0.0,0.0,0.0,0.0,7.2226,7.289,7.3437,7.375,7.5156,7.5976,7.6133,7.6836,7.7187,7.7187,7.7187,7.7187,7.7187,7.7187,7.7187,7.7187,7.7187,7.7187,7.7187,7.7187,7.7187,7.7031,7.5273,7.4609,7.4375,7.2656,7.1992,7.1992,7.1992,7.1992,7.1991,7.1971,7.1816,7.2041,7.3678,7.3947,7.4091,7.5784,7.613,7.6015,7.6015,7.6015,7.6015,7.6015,7.6015,7.6015,7.6015,7.6015,7.6015,7.6015,7.6015,7.6015,7.6015,7.6015,7.6015,7.6015,7.6015,7.6015,7.6015,7.6015,7.6015,7.6015,7.6015,7.6015,7.6015,7.6015,7.6015,7.6015,7.6015,7.6015,7.6015,7.6015,7.5668,7.4938,7.4784,7.4014,7.2629,7.2322,7.1937,7.1426,7.1475,7.1565,4.75,4.9922,5.2461,5.3711,5.6601,5.9219,5.9219,6.0508,6.1719,0.0,6.1719,0.0,0.0,0.0,0.0,0.0,0.0,0.0,0.0,0.0,0.0,0.0,0.0,0.0,0.0,0.0,0.0,0.0,0.0,0.0,7.3086,7.3242,7.3984,7.5508,7.5781,7.625,7.7031,7.7148,7.7187,7.7187,7.7187,7.7187,7.7187,7.7187,7.7187,7.7187,7.7187,7.7187,7.7187,7.7187,7.7187,7.7031,7.5273,7.4609,7.4375,7.2656,7.1992,7.1992,7.1992,7.1992,7.1981,7.1803,7.1737,7.1964,7.336,7.3716,7.4024,7.5592,7.6015,7.6015,7.6015,7.6015,7.6015,7.6015,7.6015,7.6015,7.6015,7.6015,7.6015,7.6015,7.6015,7.6015,7.6015,7.6015,7.6015,7.6015,7.6015,7.6015,7.6015,7.6015,7.6015,7.6015,7.6015,7.6015,7.6015,7.6015,7.6015,7.6015,7.6015,7.6015,7.6015,7.6015,7.5938,7.5822,7.5091,7.4591,7.4361,7.2899,7.2234,7.2338,7.1737,7.1559,4.7969,5.0117,5.2305,5.3672,5.5898,5.8008,5.8984,6.0117,6.1094,6.1601,0.0,0.0,0.0,0.0,0.0,0.0,0.0,0.0,0.0,0.0,0.0,0.0,0.0,0.0,0.0,0.0,0.0,0.0,0.0,7.2383,7.3242,7.375,7.4609,7.5859,7.6367,7.6797,7.7187,7.7187,7.7187,7.7187,7.7187,7.7187,7.7187,7.7187,7.7187,7.7187,7.7187,7.7187,7.7187,7.7187,7.7187,7.7031,7.5273,7.4609,7.4375,7.2656,7.1992,7.1992,7.1992,7.1924,7.1831,7.1723,7.158,7.1706,7.3245,7.364,7.3937,7.5553,7.6015,7.6015,7.6015,7.6015,7.6015,7.6015,7.6015,7.6015,7.6015,7.6015,7.6015,7.6015,7.6015,7.6015,7.6015,7.6015,7.6015,7.6015,7.6015,7.6015,7.6015,7.6015,7.6015,7.6015,7.6015,7.6015,7.6015,7.6015,7.6015,7.6015,7.6015,7.6015,7.6015,7.6015,7.6015,7.6015,7.563,7.5207,7.4707,7.3514,7.2706,7.2311,7.1657,7.1435,4.8164,4.9805,5.1523,5.3242,5.5156,5.707,5.8789,5.9805,6.0664,0.0,0.0,0.0,0.0,0.0,0.0,0.0,0.0,0.0,0.0,0.0,0.0,0.0,0.0,0.0,0.0,0.0,0.0,0.0,0.0,7.2695,7.3594,7.4453,7.5312,7.6211,7.6875,7.7187,7.7187,7.7187,7.7187,7.7187,7.7187,7.7187,7.7187,7.7187,7.7187,7.7187,7.7187,7.7187,7.7187,7.7187,7.7187,7.7031,7.5273,7.4609,7.4375,7.2656,7.1992,7.1991,7.1948,7.1824,7.1695,7.1618,7.1426,7.1514,7.3168,7.3591,7.386,7.5515,7.6015,7.6015,7.6015,7.6015,7.6015,7.6015,7.6015,7.6015,7.6015,7.6015,7.6015,7.6015,7.6015,7.6015,7.6015,7.6015,7.6015,7.6015,7.6015,7.6015,7.6015,7.6015,7.6015,7.6015,7.6015,7.6015,7.6015,7.6015,7.6015,7.6015,7.6015,7.6015,7.6015,7.6015,7.6015,7.6015,7.6015,7.5668,7.5014,7.4207,7.336,7.2514,7.1887,7.1564,4.7422,4.8945,5.0664,5.2344,5.4687,5.707,5.8789,5.9805,6.0664,6.1523,0.0,0.0,0.0,0.0,0.0,0.0,0.0,0.0,0.0,0.0,0.0,0.0,0.0,0.0,0.0,0.0,0.0,0.0,0.0,7.3594,7.4492,7.5351,7.6211,7.7109,7.7187,7.7187,7.7187,7.7187,7.7187,7.7187,7.7187,7.7187,7.7187,7.7187,7.7187,7.7187,7.7187,7.7187,7.7187,7.7187,7.7187,7.7031,7.5273,7.4609,7.4375,7.2656,7.1992,7.1984,7.1765,7.171,7.1657,7.1321,7.1206,7.1475,7.3053,7.3514,7.386,7.5515,7.6015,7.6015,7.6015,7.6015,7.6015,7.6015,7.6015,7.6015,7.6015,7.6015,7.6015,7.6015,7.6015,7.6015,7.6015,7.6015,7.6015,7.6015,7.6015,7.6015,7.6015,7.6015,7.6015,7.6015,7.6015,7.6015,7.6015,7.6015,7.6015,7.6015,7.6015,7.6015,7.6015,7.6015,7.6015,7.6015,7.6015,7.5976,7.5938,7.5053,7.4207,7.3437,7.2888,7.2223,4.7344,4.8476,4.9766,5.1445,5.3398,5.539,5.7148,5.8633,5.9844,6.0703,0.0,0.0,0.0,0.0,0.0,0.0,0.0,0.0,0.0,0.0,0.0,0.0,0.0,0.0,0.0,0.0,0.0,0.0,0.0,0.0,7.4531,7.4883,7.5703,7.7148,7.7187,7.7187,7.7187,7.7187,7.7187,7.7187,7.7187,7.7187,7.7187,7.7187,7.7187,7.7187,7.7187,7.7187,7.7187,7.7187,7.7187,7.7031,7.5273,7.4609,7.4375,7.2656,7.1992,7.1981,7.1781,7.1657,7.1541,7.1283,7.1475,7.2052,7.3168,7.386,7.4514,7.5668,7.6015,7.6015,7.6015,7.6015,7.6015,7.6015,7.6015,7.6015,7.6015,7.6015,7.6015,7.6015,7.6015,7.6015,7.6015,7.6015,7.6015,7.6015,7.6015,7.6015,7.6015,7.6015,7.6015,7.6015,7.6015,7.6015,7.6015,7.6015,7.6015,7.6015,7.6015,7.6015,7.6015,7.6015,7.6015,7.6015,7.6015,7.6015,7.6015,7.513,7.4553,7.4245,7.3091,7.2467,4.6992,4.7812,4.8867,5.0586,5.207,5.375,5.6055,5.75,5.8711,6.0117,0.0,0.0,0.0,0.0,0.0,0.0,0.0,0.0,0.0,0.0,0.0,0.0,0.0,0.0,0.0,0.0,0.0,0.0,0.0,0.0,7.4531,7.4883,7.5703,7.7148,7.7187,7.7187,7.7187,7.7187,7.7187,7.7187,7.7187,7.7187,7.7187,7.7187,7.7187,7.7187,7.7187,7.7187,7.7187,7.7187,7.7187,7.7031,7.5273,7.4609,7.4375,7.2656,7.1971,7.1866,7.1707,7.153,7.1387,7.1168,7.1591,7.236,7.3245,7.4053,7.4899,7.5745,7.6015,7.6015,7.6015,7.6015,7.6015,7.6015,7.6015,7.6015,7.6015,7.6015,7.6015,7.6015,7.6015,7.6015,7.6015,7.6015,7.6015,7.6015,7.6015,7.6015,7.6015,7.6015,7.6015,7.6015,7.6015,7.6015,7.6015,7.6015,7.6015,7.6015,7.6015,7.6015,7.6015,7.6015,7.6015,7.6015,7.6015,7.6015,7.6015,7.5438,7.5014,7.4784,7.3591,7.2805,0.0,0.0,0.0,4.9687,5.0781,5.2305,5.5664,5.6523,5.7305,0.0,0.0,0.0,0.0,0.0,0.0,0.0,0.0,0.0,0.0,0.0,0.0,0.0,0.0,0.0,0.0,0.0,0.0,0.0,0.0,7.3633,7.4531,7.5469,7.6328,7.7187,7.7187,7.7187,7.7187,7.7187,7.7187,7.7187,7.7187,7.7187,7.7187,7.7187,7.7187,7.7187,7.7187,7.7187,7.7187,7.7187,7.7187,7.7031,7.5312,7.4609,7.4375,7.2655,7.1899,7.166,7.1564,7.1378,7.1168,7.1014,7.1514,7.2399,7.3283,7.4091,7.4899,7.5745,7.6015,7.6015,7.6015,7.6015,7.6015,7.6015,7.6015,7.6015,7.6015,7.6015,7.6015,7.6015,7.6015,7.6015,7.6015,7.6015,7.6015,7.6015,7.6015,7.6015,7.6015,7.6015,7.6015,7.6015,7.6015,7.6015,7.6015,7.6015,7.6015,7.6015,7.6015,7.6015,7.6015,7.6015,7.6015,7.6015,7.6015,7.6015,7.6015,7.6015,7.5668,7.5005,7.4322,7.3296,4.6289,0.0,0.0,0.0,0.0,0.0,0.0,0.0,5.6797,0.0,0.0,0.0,0.0,0.0,0.0,0.0,0.0,0.0,0.0,0.0,0.0,0.0,0.0,0.0,0.0,0.0,0.0,0.0,7.2226,7.3008,7.4531,7.6015,7.6953,7.7187,7.7187,7.7187,7.7187,7.7187,7.7187,7.7187,7.7187,7.7187,7.7187,7.7187,7.7187,7.7187,7.7187,7.7187,7.7187,7.7187,7.7187,7.7109,7.5976,7.5156,7.4449,7.3192,7.2291,7.1645,7.14,7.1249,7.1245,7.1706,7.2437,7.3283,7.413,7.4976,7.5707,7.5938,7.6015,7.6015,7.6015,7.6015,7.6015,7.6015,7.6015,7.6015,7.6015,7.6015,7.6015,7.6015,7.6015,7.6015,7.6015,7.6015,7.6015,7.6015,7.6015,7.6015,7.6015,7.6015,7.6015,7.6015,7.6015,7.6015,7.6015,7.6015,7.6015,7.6015,7.6015,7.6015,7.6015,7.6015,7.6015,7.6015,7.6015,7.6015,7.6015,7.6015,7.5899,7.5697,7.453,7.3625,4.6289,4.668,4.7148,4.75,0.0,0.0,5.1172,5.3242,0.0,0.0,0.0,0.0,0.0,0.0,0.0,0.0,0.0,0.0,0.0,0.0,0.0,0.0,0.0,0.0,0.0,0.0,0.0,7.1406,7.1797,7.2773,7.4492,7.5898,7.6836,7.7187,7.7187,7.7187,7.7187,7.7187,7.7187,7.7187,7.7187,7.7187,7.7187,7.7187,7.7187,7.7187,7.7187,7.7187,7.7187,7.7187,7.7187,7.7109,7.625,7.5321,7.434,7.3373,7.2377,7.1464,7.1245,7.1129,7.1206,7.1937,7.2783,7.3668,7.4476,7.5322,7.6015,7.6015,7.6015,7.6015,7.6015,7.6015,7.6015,7.6015,7.6015,7.6015,7.6015,7.6015,7.6015,7.6015,7.6015,7.6015,7.6015,7.6015,7.6015,7.6015,7.6015,7.6015,7.6015,7.6015,7.6015,7.6015,7.6015,7.6015,7.6015,7.6015,7.6015,7.6015,7.6015,7.6015,7.6015,7.6015,7.6015,7.6015,7.6015,7.6015,7.6015,7.6015,7.5899,7.5697,7.4724,7.39,4.6328,4.6289,4.6484,4.7266,4.7539,0.0,5.0469,5.1797,5.3203,0.0,0.0,0.0,0.0,0.0,0.0,0.0,0.0,0.0,0.0,0.0,0.0,0.0,0.0,0.0,0.0,6.9961,7.0508,7.0703,7.1601,7.2812,7.4375,7.5351,7.625,7.7031,7.7148,7.7187,7.7187,7.7187,7.7187,7.7187,7.7187,7.7187,7.7187,7.7187,7.7187,7.7187,7.7187,7.7187,7.7187,7.7187,7.7187,7.7109,7.6367,7.5335,7.4202,7.3405,7.23,7.1206,7.1168,7.1091,7.1206,7.2052,7.2937,7.3783,7.4591,7.5399,7.6015,7.6015,7.6015,7.6015,7.6015,7.6015,7.6015,7.6015,7.6015,7.6015,7.6015,7.6015,7.6015,7.6015,7.6015,7.6015,7.6015,7.6015,7.6015,7.6015,7.6015,7.6015,7.6015,7.6015,7.6015,7.6015,7.6015,7.6015,7.6015,7.6015,7.6015,7.6015,7.6015,7.6015,7.6015,7.6015,7.6015,7.6015,7.6015,7.6015,7.6015,7.6015,7.5813,7.5424,7.4956,7.4251,4.6484,4.6289,4.6328,4.6523,0.0,0.0,4.8242,5.0078,5.1797,0.0,0.0,0.0,0.0,0.0,0.0,0.0,0.0,0.0,0.0,0.0,0.0,0.0,0.0,0.0,0.0,6.8164,6.9258,7.0586,7.2148,7.3203,7.3555,7.5039,7.5976,7.6133,7.6836,7.7187,7.7187,7.7187,7.7187,7.7187,7.7187,7.7187,7.7187,7.7187,7.7187,7.7187,7.7187,7.7187,7.7187,7.7187,7.7187,7.7187,7.6992,7.5842,7.4279,7.3906,7.2685,7.1168,7.1014,7.1398,7.2091,7.2976,7.3822,7.463,7.5476,7.5861,7.6015,7.6015,7.6015,7.6015,7.6015,7.6015,7.6015,7.6015,7.6015,7.6015,7.6015,7.6015,7.6015,7.6015,7.6015,7.6015,7.6015,7.6015,7.6015,7.6015,7.6015,7.6015,7.6015,7.6015,7.6015,7.6015,7.6015,7.6015,7.6015,7.6015,7.6015,7.6015,7.6015,7.6015,7.6015,7.6015,7.6015,7.6015,7.6015,7.6015,7.6015,7.6169,7.6276,7.6337,7.5675,7.5035,4.7187,4.6641,0.0,4.6289,0.0,0.0,0.0,0.0,5.0937,0.0,0.0,0.0,0.0,0.0,0.0,0.0,0.0,0.0,0.0,0.0,0.0,0.0,0.0,0.0,0.0,6.7031,6.8437,7.0547,7.1523,7.2383,7.3242,7.4531,7.5469,7.5898,7.6758,7.7187,7.7187,7.7187,7.7187,7.7187,7.7187,7.7187,7.7187,7.7187,7.7187,7.7187,7.7187,7.7187,7.7187,7.7187,7.714,7.7049,7.7049,7.6121,7.4745,7.4128,7.2965,7.1668,7.1591,7.1822,7.2399,7.3668,7.4361,7.4861,7.5745,7.6015,7.6015,7.6015,7.6015,7.6015,7.6015,7.6015,7.6015,7.6015,7.6015,7.6015,7.6015,7.6015,7.6015,7.6015,7.6015,7.6015,7.6015,7.6015,7.6015,7.6015,7.6015,7.6015,7.6015,7.6015,7.6015,7.6015,7.6015,7.6015,7.6015,7.6015,7.6015,7.6015,7.6015,7.6015,7.6015,7.6015,7.6015,7.6015,7.6015,7.6053,7.613,7.6322,7.6505,7.6582,7.6038,7.5581,0.0,0.0,0.0,0.0,0.0,4.6992,0.0,0.0,0.0,0.0,0.0,0.0,0.0,0.0,0.0,0.0,0.0,0.0,0.0,0.0,0.0,0.0,0.0,0.0,0.0,6.6172,6.7812,7.0039,7.0508,7.1328,7.2734,7.3789,7.4765,7.5625,7.6484,7.7031,7.7187,7.7187,7.7187,7.7187,7.7187,7.7187,7.7187,7.7187,7.7187,7.7187,7.7187,7.7187,7.7187,7.7187,7.7089,7.689,7.689,7.621,7.5118,7.4179,7.3234,7.2437,7.2245,7.2399,7.2899,7.4245,7.4822,7.5091,7.5784,7.6015,7.6015,7.6015,7.6015,7.6015,7.6015,7.6015,7.6015,7.6015,7.6015,7.6015,7.6015,7.6015,7.6015,7.6015,7.6015,7.6015,7.6015,7.6015,7.6015,7.6015,7.6015,7.6015,7.6015,7.6015,7.6015,7.6015,7.6015,7.6015,7.6015,7.6015,7.6015,7.6015,7.6015,7.6015,7.6015,7.6015,7.6015,7.6015,7.6053,7.613,7.6284,7.6544,7.6687,7.6665,7.6326,7.6055,0.0,0.0,0.0,0.0,4.8594,0.0,0.0,0.0,0.0,0.0,0.0,0.0,0.0,0.0,0.0,0.0,0.0,0.0,0.0,0.0,0.0,0.0,0.0,0.0,0.0,0.0,6.7344,6.8398,6.9844,7.0781,7.0976,7.2539,7.3867,7.4726,7.5586,7.6406,7.7187,7.7187,7.7187,7.7187,7.7187,7.7187,7.7187,7.7187,7.7187,7.7187,7.7187,7.7187,7.7187,7.7187,7.7089,7.689,7.689,7.6139,7.4923,7.4109,7.3619,7.3245,7.2476,7.3168,7.4437,7.463,7.5207,7.5861,7.5976,7.6015,7.6015,7.6015,7.6015,7.6015,7.6015,7.6015,7.6015,7.6015,7.6015,7.6015,7.6015,7.6015,7.6015,7.6015,7.6015,7.6015,7.6015,7.6015,7.6015,7.6015,7.6015,7.6015,7.6015,7.6015,7.6015,7.6015,7.6015,7.6015,7.6015,7.6015,7.6015,7.6015,7.6015,7.6015,7.6015,7.6015,7.6015,7.6015,7.6169,7.6284,7.6284,7.6698,7.6842,7.6866,7.7012,7.664,0.0,0.0,0.0,0.0,0.0,0.0,4.8984,0.0,5.0117,0.0,0.0,0.0,0.0,0.0,0.0,0.0,0.0,0.0,0.0,0.0,0.0,0.0,0.0,0.0,0.0,0.0,0.0,0.0,0.0,7.0156,7.0664,7.2344,7.3711,7.457,7.5469,7.6328,7.7187,7.7187,7.7187,7.7187,7.7187,7.7187,7.7187,7.7187,7.7187,7.7187,7.7187,7.7128,7.7032,7.7032,7.6859,7.6544,7.6544,7.6236,7.5659,7.4668,7.4284,7.413,7.3783,7.413,7.4784,7.5284,7.5707,7.6015,7.6015,7.6015,7.6015,7.6015,7.6015,7.6015,7.6015,7.6015,7.6015,7.6015,7.6015,7.6015,7.6015,7.6015,7.6015,7.6015,7.6015,7.6015,7.6015,7.6015,7.6015,7.6015,7.6015,7.6015,7.6015,7.6015,7.6015,7.6015,7.6015,7.6015,7.6015,7.6015,7.6015,7.6015,7.6015,7.6015,7.6015,7.6015,7.6015,7.6015,7.6207,7.6353,7.6475,7.6739,7.6967,7.7073,7.7151,7.6992,5.5156,0.0,0.0,0.0,0.0,0.0,0.0,0.0,0.0,0.0,0.0,0.0,0.0,0.0,0.0,0.0,0.0,0.0,0.0,0.0,0.0,0.0,0.0,0.0,0.0,0.0,0.0,0.0,0.0,0.0,7.0273,7.1758,7.3086,7.4219,7.5078,7.5976,7.6836,7.707,7.7187,7.7187,7.7187,7.7187,7.7187,7.7187,7.7187,7.7187,7.7187,7.71,7.689,7.689,7.6659,7.6284,7.6284,7.6245,7.6092,7.5091,7.4861,7.5014,7.4784,7.4861,7.5168,7.5784,7.6015,7.6015,7.6015,7.6015,7.6015,7.6015,7.6015,7.6015,7.6015,7.6015,7.6015,7.6015,7.6015,7.6015,7.6015,7.6015,7.6015,7.6015,7.6015,7.6015,7.6015,7.6015,7.6015,7.6015,7.6015,7.6015,7.6015,7.6015,7.6015,7.6015,7.6015,7.6015,7.6015,7.6015,7.6015,7.6015,7.6015,7.6015,7.6015,7.6053,7.6092,7.6092,7.6322,7.6559,7.6671,7.6868,7.7047,7.7173,7.7206,7.7187,0.0,0.0,0.0,5.5105,0.0,0.0,0.0,0.0,5.2383,0.0,0.0,0.0,0.0,5.0898,5.1172,5.0391,5.0976,0.0,0.0,0.0,0.0,0.0,0.0,0.0,0.0,0.0,0.0,0.0,0.0,0.0,6.9336,7.0273,7.1562,7.3281,7.418,7.5078,7.5937,7.6797,7.7187,7.7187,7.7187,7.7187,7.7187,7.7187,7.7187,7.7187,7.7187,7.71,7.689,7.689,7.6659,7.6284,7.6284,7.6169,7.5899,7.5014,7.5245,7.5822,7.4976,7.5245,7.5976,7.5976,7.6015,7.6015,7.6015,7.6015,7.6015,7.6015,7.6015,7.6015,7.6015,7.6015,7.6015,7.6015,7.6015,7.6015,7.6015,7.6015,7.6015,7.6015,7.6015,7.6015,7.6015,7.6015,7.6015,7.6015,7.6015,7.6015,7.6015,7.6015,7.6015,7.6015,7.6015,7.6015,7.6015,7.6015,7.6015,7.6015,7.6015,7.6015,7.6015,7.6169,7.6284,7.6284,7.6698,7.6852,7.6881,7.7112,7.7176,7.7186,7.7187,7.7187,0.0,0.0,5.7537,5.7122,0.0,0.0,0.0,0.0,0.0,0.0,0.0,0.0,0.0,5.1601,5.1328,5.1055,5.1211,5.1406,0.0,0.0,0.0,0.0,0.0,0.0,0.0,0.0,0.0,0.0,0.0,0.0,0.0,6.9922,7.1211,7.2383,7.3281,7.4453,7.5898,7.6172,7.664,7.7187,7.7187,7.7187,7.7187,7.7187,7.7187,7.7187,7.7053,7.6905,7.6671,7.6584,7.6322,7.6092,7.6092,7.6053,7.5976,7.5668,7.5745,7.5976,7.5668,7.5745,7.6015,7.6015,7.6015,7.6015,7.6015,7.6015,7.6015,7.6015,7.6015,7.6015,7.6015,7.6015,7.6015,7.6015,7.6015,7.6015,7.6015,7.6015,7.6015,7.6015,7.6015,7.6015,7.6015,7.6015,7.6015,7.6015,7.6015,7.6015,7.6015,7.6015,7.6015,7.6015,7.6015,7.6015,7.6015,7.6015,7.6015,7.6015,7.6015,7.6015,7.6015,7.6053,7.6169,7.6284,7.656,7.6753,7.689,7.7104,7.7206,7.7187,7.7187,7.7187,6.1259,6.0325,0.0,5.8828,5.8437,0.0,5.6836,0.0,0.0,0.0,0.0,0.0,0.0,0.0,5.2226,5.1914,5.1601,5.1289,0.0,5.1719,0.0,0.0,0.0,0.0,0.0,0.0,0.0,0.0,0.0,0.0,0.0,0.0,7.0625,7.1523,7.2695,7.3984,7.543,7.5742,7.6328,7.7187,7.7187,7.7187,7.7187,7.7187,7.7187,7.7186,7.7,7.6791,7.6594,7.6365,7.6169,7.6015,7.6015,7.6015,7.6015,7.6015,7.6015,7.6015,7.6015,7.6015,7.6015,7.6015,7.6015,7.6015,7.6015,7.6015,7.6015,7.6015,7.6015,7.6015,7.6015,7.6015,7.6015,7.6015,7.6015,7.6015,7.6015,7.6015,7.6015,7.6015,7.6015,7.6015,7.6015,7.6015,7.6015,7.6015,7.6015,7.6015,7.6015,7.6015,7.6015,7.6015,7.6015,7.6015,7.6015,7.6015,7.6015,7.6015,7.6015,7.6015,7.6015,7.613,7.613,7.5938,7.6521,7.6741,7.6555,7.6978,7.7187,7.7187,7.7187,7.7187]},{"header":{"parameterUnit":"m.s-1","parameterCategory":1,"la1":30.6,"la2":29.2853,"lo1":-89.7004,"lo2":-87.6739,"dx":0.0162,"dy":0.0183,"nx":112,"ny":82,"refTime":"2022-12-30T18:00:00:Z","depth":0,"parameterNumber":3,"parameterNumberName":"V-component_of_WINDS"},"data":[0.0,0.0,0.0,0.0,0.0,0.0,0.0,0.0,0.0,0.0,0.0,0.0,0.0,0.0,0.0,0.0,0.0,0.0,0.0,0.0,0.0,0.0,0.0,0.0,0.0,0.0,0.0,0.0,0.0,0.0,0.0,0.0,0.0,0.0,0.0,0.0,0.0,0.0,0.0,0.0,0.0,0.0,0.0,0.0,0.0,0.0,0.0,0.0,0.0,0.0,0.0,0.0,0.0,0.0,0.0,0.0,0.0,0.0,0.0,0.0,0.0,0.0,0.0,0.0,0.0,0.0,0.0,0.0,0.0,0.0,0.0,0.0,0.0,0.0,0.0,0.0,0.0,0.0,0.0,0.0,0.0,0.0,0.0,0.0,0.0,0.0,0.0,0.0,0.0,0.0,0.0,-0.036,0.0,0.0,0.0,0.0,0.0,0.0,0.0,0.0,0.0,0.0,0.0,0.0,0.0,0.0,0.0,0.0,0.0,0.0,0.0,0.0,0.0,0.0,0.0,0.0,0.0,0.0,0.0,0.0,0.0,0.0,0.0,0.0,0.0,0.0,0.0,0.0,0.0,0.0,0.0,0.0,0.0,0.0,0.0,0.0,0.0,0.0,0.0,0.0,0.0,0.0,0.0,0.0,0.0,0.0,0.0,0.0,0.0,0.0,0.0,0.0,0.0,0.0,0.0,0.0,0.0,0.0,0.0,0.0,0.0,0.0,0.0,0.0,0.0,0.0,0.0,0.0,0.0,0.0,0.0,0.0,0.0,0.0,0.0,0.0,0.0,0.0,0.0,0.0,0.0,0.0,0.0,0.0,0.0,0.0,0.0,0.0,0.0,0.0,0.0,0.0,0.0,0.0,0.0,0.0,0.0,0.0,0.0,0.0,0.0,0.0,-0.0704,-0.0092,0.0,0.0,0.0,0.0,0.0,0.0,0.0,0.0,0.0,0.0,0.0,0.0,0.0,0.0,0.0,0.0,0.0,0.0,0.0,0.0,0.0,0.0,0.0,0.0,0.0,0.0,0.0,0.0,0.0,0.0,0.0,0.0,0.0,0.0,0.0,0.0,0.0,0.0,0.0,0.0,0.0,0.0,0.0,0.0,0.0,0.0,0.0,0.0,0.0,0.0,0.0,0.0,0.0,0.0,0.0,0.0,0.0,0.0,0.0,0.0,0.0,0.0,0.0,0.0,0.0,0.0,0.0,0.0,0.0,0.0,0.0,0.0,0.0,0.0,0.0,0.0,0.0,0.0,0.0,0.0,0.0,0.0,0.0,0.0,0.0,0.0,0.0,0.0,0.0,0.0,0.0,0.0,0.0,0.0,0.0,0.0,0.0,0.0,0.0,0.0,0.0,0.0,0.0,0.0,0.0,0.0,0.0,0.0,0.0,-0.1154,0.0,0.0,0.0,0.0,0.0,0.0,0.0,0.0,0.0,0.0,0.0,0.0,0.0,0.0,0.0,0.0,0.0,0.0,0.0,0.0,0.0,0.0,0.0,0.0,0.0,0.0,0.0,0.0,0.0,0.0,0.0,0.0,0.0,0.0,0.0,0.0,0.0,0.0,0.0,0.0,0.0,0.0,0.0,0.0,0.0,0.0,0.0,0.0,0.0,0.0,0.0,0.0,0.0,0.0,0.0,0.0,0.0,0.0,0.0,0.0,0.0,0.0,0.0,0.0,0.0,0.0,0.0,0.0,0.0,0.0,0.0,0.0,0.0,0.0,0.0,0.0,0.0,0.0,0.0,0.0,0.0,0.0,0.0,0.0,0.0,0.0,0.0,0.0,0.0,0.0,0.0,0.0,0.0,0.0,0.0,0.0,0.0,0.0,0.0,0.0,0.0,0.0,0.0,0.0,0.0,0.0,0.0,0.0,0.0,0.0,0.0,0.0,0.0,0.0,0.0,0.0,0.0,0.0,0.0,0.0,0.0,0.0,0.0,0.0,0.0,0.0,0.0,0.0,0.0,0.0,0.0,0.0,0.0,0.0,0.0,0.0,0.0,0.0,0.0,0.0,0.0,0.0,0.0,0.0,0.0,0.0,0.0,0.0,0.0,0.0,0.0,0.0,0.0,0.0,0.0,0.0,0.0,0.0,0.0,0.0,0.0,0.0,0.0,0.0,0.0,0.0,0.0,0.0,0.0,0.0,0.0,0.0,0.0,0.0,0.0,0.0,0.0,0.0,0.0,0.0,0.0,0.0,0.0,0.0,0.0,0.0,0.0,0.0,0.0,0.0,0.0,0.0,0.0,0.0,0.0,0.0,0.0,0.0,0.0,0.0,0.0,0.0,0.0,0.0,0.0,0.0,0.0,0.0,0.0,0.0,0.0,0.0,0.0,0.0,0.0,0.0,0.0,0.0,0.0,0.0,0.0,0.0,0.0,0.0,0.0,0.0,0.0,0.0,0.0,0.0,0.0,0.0,0.0,0.0,0.0,0.0,0.0,0.0,0.0,0.0,0.0,0.0,0.0,0.0,0.0,0.0,0.0,0.0,0.0,0.0,0.0,0.0,0.0,0.0,0.0,0.0,0.0,0.0,0.0,0.0,0.0,0.0,0.0,0.0,0.0,0.0,0.0,0.0,0.0,0.0,0.0,0.0,0.0,0.0,0.0,0.0,0.0,0.0,0.0,0.0,0.0,0.0,0.0,0.0,0.0,0.0,0.0,0.0,0.0,0.0,0.0,0.0,0.0,0.0,0.0,0.0,0.0,0.0,0.0,0.0,0.0,0.0,0.0,0.0,0.0,0.0,0.0,0.0,0.0,0.0,0.0,0.0,0.0,0.0,0.0,0.0,0.0,0.0,0.0,0.0,0.0,0.0,0.0,0.0,0.0,0.0,0.0,0.0,0.0,0.0,0.0,0.0,0.0,0.0,0.0,0.0,0.0,0.0,0.0,0.0,0.0,0.0,0.0,0.0,0.0,0.0,0.0,0.0,0.0,0.0,0.0,0.0,0.0,0.0,0.0,0.0,0.0,0.0,0.0,0.0,0.0,0.0,0.0,0.0,0.0,0.0,0.0,0.0,0.0,0.0,0.0,0.0,0.0,0.0,0.0,0.0,0.0,0.0,0.0,0.0,0.0,0.0,0.0,0.0,0.0,0.0,0.0,0.0,0.0,0.0,0.0,0.0,0.0,0.0,0.0,0.0,0.0,0.0,0.0,0.0,0.0,0.0,0.0,0.0,0.0,0.0,0.0,0.0,0.0,0.0,0.0,0.0,0.0,0.0,0.0,0.0,0.0,0.0,0.0,0.0,0.0,0.0,0.0,0.0,0.0,0.0,0.0,0.0,0.0,0.0,0.0,0.0,0.0,0.0,0.0,0.0,0.0,0.0,0.0,0.0,0.0,0.0,0.0,0.0,0.0,0.0,0.0,0.0,0.0,0.0,0.0,0.0,0.0,0.0,0.0,0.0,0.0,0.0,0.0,0.0,0.0,0.0,0.0,0.0,0.0,0.0,0.0,0.0,0.0,0.0,0.0,0.0,0.0,0.0,0.0,0.0,0.0,0.0,0.0,0.0,0.0,0.0,0.0,0.0,0.0,0.0,0.0,0.0,0.0,0.0,0.0,0.0,0.0,0.0,0.0,0.0,0.0,0.0,0.0,0.0,0.0,0.0,0.0,0.0,0.0,0.0,0.0,0.0,0.0,0.0,0.0,0.0,0.0,0.0,0.0,0.0,0.0,0.0,0.0,0.0,0.0,0.0,0.0,0.0,0.0,0.0,0.0,0.0,0.0,0.0,0.0,0.0,0.0,0.0,0.0,0.0,0.0,0.0,0.0,0.0,0.0,0.0,0.0,0.0,0.0,0.0,0.0,0.0,0.0,0.0,0.0,0.0,0.0,0.0,0.0,0.0,0.0,0.0,0.0,0.0,0.0,0.0,0.0,0.0,0.0,0.0,0.0,0.0,0.0,0.0,0.0,0.0,0.0,0.0,0.0,0.0,0.0,0.0,0.0,0.0,0.0,0.0,0.0,0.0,0.0,0.0,0.0,0.0,0.0,0.0,0.0,0.0,0.0,0.0,0.0,0.0,0.0,0.0,0.0,0.0,0.0,0.0,0.0,0.0,0.0,0.0,0.0,0.0,0.0,0.0,0.0,0.0,0.0,0.0,0.0,0.0,0.0,0.0,0.0,0.0,0.0,0.0,0.0,0.0,0.0,0.0,0.0,0.0,0.0,0.0,0.0,0.0,0.0,0.0,0.0,0.0,0.0,0.0,0.0,0.0,0.0,0.0,0.0,0.0,0.0,0.0,0.0,0.0,0.0,0.0,0.0,0.0,0.0,0.0,0.0,0.0,0.0,0.0,0.0,0.0,0.0,0.0,0.0,0.0,0.0,0.0,0.0,0.0,0.0,0.0,0.0,0.0,0.0,0.0,0.0,0.0,0.0,0.0,0.0,0.0,0.0,0.0,0.0,0.0,0.0,0.0,0.0,0.0,0.0,0.0,0.0,0.0,0.0,0.0,0.0,0.0,0.0,0.0,0.0,0.0,0.0,0.0,0.0,0.0,0.0,0.0,0.0,0.0,0.0,0.0,0.0,0.0,0.0,0.0,0.0,0.0,0.0,0.0,0.0,0.0,0.0,0.0,0.0,0.0,0.0,0.0,0.0,0.0,0.0,0.0,0.0,0.0,0.0,0.0,0.0,0.0,0.0,0.0,0.0,0.0,0.0,0.0,0.0,0.0,0.0,0.0,0.0,0.0,0.0,0.0,0.0,0.0,0.0,0.0,0.0,0.0,0.0,0.0,0.0,0.0,0.0,0.0,0.0,0.0,0.0,0.0,0.0,0.0,0.0,0.0,0.0,0.0,0.0,0.0,0.0,0.0,0.0,0.0,0.0,0.0,0.0,0.0,0.0,0.0,0.0,0.0,0.0,0.0,0.0,0.0,0.0,0.0,0.0,0.0,0.0,0.0,0.0,0.0,0.0,0.0,0.0,0.0,0.0,0.0,0.0,0.0,0.0,0.0,0.0,0.0,0.0,0.0,0.0,0.0,0.0,0.0,0.0,0.0,0.0,0.0,0.0,0.0,0.0,0.0,0.0,0.0,0.0,0.0,0.0,0.0,0.0,0.0,0.0,0.0,0.0,0.0,0.0,0.0,0.0,0.0,0.0,0.0,0.0,0.0,0.0,0.0,0.0,0.0,0.0,0.0,0.0,0.0,0.0,0.0,0.0,0.0,0.0,0.0,0.0,0.0,0.0,0.0,0.0,0.0,0.0,0.0,0.0,0.0,0.0,0.0,0.0,0.0,0.0,0.0,0.0,0.0,0.0,0.0,0.0,0.0,0.0,0.0,0.0,0.0,0.0,0.0,0.0,0.0,0.0,0.0,0.0,0.0,0.0,0.0,0.0,0.0,0.0,0.0,0.0,0.0,0.0,0.0,0.0,0.0,0.0,0.0,0.0,0.0,0.0,0.0,0.0,0.0,0.0,0.0,0.0,0.0,0.0,0.0,0.0,0.0,0.0,0.0,0.0,0.0,0.0,0.0,0.0,0.0,0.0,0.0,0.0,0.0,0.0,0.0,0.0,0.0,0.0,0.0,0.0,0.0,0.0,0.0,0.0,0.0,0.0,0.0,0.0,0.0,0.0,0.0,0.0,0.0,0.0,0.0,0.0,0.0,0.0,0.0,0.0,0.0,0.0,0.0,0.0,0.0,0.0,0.0,0.0,0.0,0.0,0.0,0.0,0.0,0.0,0.0,0.0,0.0,0.0,0.0,0.0,0.0,0.0,0.0,0.0,0.0,0.0,0.0,0.0,0.0,0.0,0.0,0.0,0.0,0.0,0.0,0.0,0.0,0.0,0.0,0.0,0.0,0.0,0.0,0.0,0.0,0.0,0.0,0.0,0.0,0.0,0.0,0.0,0.0,0.0,0.0,0.0,0.0,0.0,0.0,0.0,0.0,0.0,0.0,0.0,0.0,0.0,0.0,0.0,0.0,0.0,0.0,0.0,0.0,0.0,0.0,0.0,0.0,0.0,0.0,0.0,0.0,0.0,0.0,0.0,0.0,0.0,0.0,0.0,0.0,0.0,0.0,0.0,0.0,0.0,0.0,0.0,0.0,0.0,0.0,0.0,0.0,0.0,0.0,0.0,0.0,0.0,0.0,0.0,0.0,0.0,0.0,0.0,0.0,0.0,0.0,0.0,0.0,0.0,0.0,0.0,0.0,0.0,0.0,0.0,0.0,0.0,0.0,0.0,0.0,0.0,0.0,0.0,0.0,0.0,0.0,0.0,0.0,0.0,0.0,0.0,0.0,0.0,0.0,0.0,0.0,0.0,0.0,0.0,0.0,0.0,0.0,0.0,0.0,0.0,0.0,0.0,0.0,0.0,0.0,0.0,0.0,0.0,0.0,0.0,0.0,0.0,0.0,0.0,0.0,0.0,0.0,0.0,0.0,0.0,0.0,0.0,0.0,0.0,0.0,0.0,0.0,0.0,0.0,0.0,0.0,0.0,0.0,0.0,0.0,0.0,0.0,0.0,0.0,0.0,0.0,0.0,0.0,0.0,0.0,0.0,0.0,0.0,0.0,0.0,0.0,0.0,0.0,0.0,0.0,0.0,0.0,0.0,0.0,0.0,0.0,0.0,0.0,0.0,0.0,0.0,0.0,0.0,0.0,0.0,0.0,0.0,0.0,0.0,0.0,0.0,0.0,0.0,0.0,0.0,0.0,0.0,0.0,0.0,0.0,0.0,0.0,0.0,0.0,0.0,0.0,0.0,0.0,0.0,0.0,0.0,0.0,0.0,0.0,0.0,0.0,0.0,0.0,0.0,0.0,0.0,0.0,0.0,0.0,0.0,0.0,0.0,0.0,0.0,0.0,0.0,0.0,0.0,0.0,0.0,0.0,0.0,0.0,0.0,0.0,0.0,0.0,0.0,0.0,0.0,0.0,0.0,0.0,0.0,0.0,0.0,0.0,0.0,0.0,0.0,0.0,0.0,0.0,0.0,0.0,0.0,0.0,0.0,0.0,0.0,0.0,0.0,0.0,0.0,0.0,0.0,0.0,0.0,0.0,0.0,0.0,0.0,0.0,0.0,0.0,0.0,0.0,0.0,0.0,0.0,0.0,0.0,0.0,0.0,0.0,0.0,0.0,0.0,0.0,0.0,0.0,0.0,0.0,0.0,0.0,0.0,0.0,0.0,0.0,0.0,0.0,0.0,0.0,0.0,0.0,0.0,0.0,0.0,0.0,0.0,0.0,0.0,0.0,0.0,0.0,0.0,0.0,0.0,0.0,0.0,0.0,0.0,0.0,0.0,0.0,0.0,0.0,0.0,0.0,0.0,0.0,0.0,0.0,0.0,0.0,0.0,0.0,0.0,0.0,0.0,0.0,0.0,0.0,0.0,0.0,0.0,0.0,0.0,0.0,0.0,0.0,0.0,0.0,0.0,0.0,0.0,0.0,0.0,0.0,0.0,0.0,0.0,0.0,0.0,0.0,0.0,0.0,0.0,0.0,0.0,0.0,0.0,0.0,0.0,0.0,0.0,0.0,0.0,0.0,0.0,0.0,0.0,0.0,0.0,0.0,0.0,0.0,0.0,0.0,0.0,0.0,0.0,0.0,0.0,0.0,0.0,0.0,0.0,0.0,0.0,0.0,0.0,0.0,0.0,0.0,0.0,0.0,0.0,0.0,0.0,0.0,0.0,0.0,0.0,0.0,0.0,0.0,0.0,0.0,0.0,0.0,0.0,0.0,0.0,0.0,0.0,0.0,0.0,0.0,0.0,0.0,0.0,0.0,0.0,0.0,0.0,0.0,0.0,0.0,0.0,0.0,0.0,0.0,0.0,0.0,0.0,0.0,0.0,0.0,0.0,0.0,0.0,0.0,0.0,0.0,0.0,0.0,0.0,0.0,0.0,0.0,0.0,0.0,0.0,0.0,0.0,0.0,0.0,0.0,0.0,0.0,0.0,0.0,0.0,0.0,0.0,0.0,0.0,0.0,0.0,0.0,0.0,0.0,0.0,0.0,0.0,0.0,0.0,0.0,0.0,0.0,0.0,0.0,0.0,0.0,0.0,0.0,0.0,0.0,0.0,0.0,0.0,0.0,0.0,0.0,0.0,0.0,0.0,0.0,0.0,0.0,0.0,0.0,0.0,0.0,0.0,0.0,0.0,0.0,0.0,0.0,0.0,0.0,0.0,0.0,0.0,0.0,0.0,0.0,0.0,0.0,0.0,0.0,0.0,0.0,0.0,0.0,0.0,0.0,0.0,0.0,0.0,0.0,0.0,0.0,0.0,0.0,0.0,0.0,0.0,0.0,0.0,0.0,0.0,0.0,0.0,0.0,0.0,0.0,0.0,0.0,0.0,0.0,0.0,0.0,0.0,0.0,0.0,0.0,0.0,0.0,0.0,0.0,0.0,0.0,0.0,0.0,0.0,0.0,0.0,0.0,0.0,0.0,0.0,0.0,0.0,0.0,0.0,0.0,0.0,0.0,0.0,0.0,0.0,0.0,0.0,0.0,0.0,0.0,0.0,0.0,0.0,0.0,0.0,0.0,0.0,0.0,0.0,0.0,0.0,0.0,0.0,0.0,0.0,0.0,0.0,0.0,0.0,0.0,0.0,0.0,0.0,0.0,0.0,0.0,0.0,0.0,0.0,0.0,0.0,0.0,0.0,0.0,0.0,0.0,0.0,0.0,0.0,0.0,0.0,0.0,0.0,0.0,0.0,0.0,0.0,0.0,0.0,0.0,0.0,0.0,0.0,0.0,0.0,0.0,0.0,0.0,0.0,0.0,0.0,0.0,0.0,0.0,0.0,0.0,0.0,0.0,0.0,0.0,0.0,0.0,0.0,0.0,0.0,0.0,0.0,0.0,0.0,0.0,0.0,0.0,0.0,0.0,0.0,0.0,0.0,0.0,0.0,0.0,0.0,0.0,0.0,0.0,0.0,0.0,0.0,0.0,0.0,0.0,0.0,0.0,0.0,0.0,0.0,0.0,0.0,0.0,0.0,0.0,0.0,0.0,0.0,0.0,0.0,0.0,0.0,0.0,0.0,0.0,0.0,0.0,0.0,0.0,0.0,0.0,0.0,0.0,0.0,0.0,0.0,0.0,0.0,0.0,0.0,0.0,0.0,0.0,0.0,0.0,0.0,0.0,0.0,0.0,0.0,0.0,0.0,0.0,0.0,0.0,0.0,0.0,0.0,0.0,0.0,0.0,0.0,0.0,0.0,0.0,0.0,0.0,0.0,0.0,0.0,0.0,0.0,0.0,0.0,0.0,0.0,0.0,0.0,0.0,0.0,0.0,0.0,0.0,0.0,0.0,0.0,0.0,0.0,0.0,0.0,0.0,0.0,0.0,0.0,0.0,0.0,0.0,0.0,0.0,0.0,0.0,0.0,0.0,0.0,0.0,0.0,0.0,0.0,0.0,0.0,0.0,0.0,0.0,0.0,0.0,0.0,0.0,0.0,0.0,0.0,0.0,0.0,0.0,0.0,0.0,0.0,0.0,0.0,0.0,0.0,0.0,0.0,0.0,0.0,0.0,0.0,0.0,0.0,0.0,0.0,0.0,0.0,0.0,0.0,0.0,0.0,0.0,0.0,0.0,0.0,0.0,0.0,0.0,0.0,0.0,0.0,0.0,0.0,0.0,0.0,0.0,0.0,0.0,0.0,0.0,0.0,0.0,0.0,0.0,0.0,0.0,0.0,0.0,0.0,0.0,0.0,0.0,0.0,0.0,0.0,0.0,0.0,0.0,0.0,0.0,0.0,0.0,0.0,0.0,0.0,0.0,0.0,0.0,0.0,0.0,0.0,0.0,0.0,0.0,0.0,0.0,0.0,0.0,0.0,0.0,0.0,0.0,0.0,0.0,0.0,0.0,0.0,0.0,0.0,0.0,0.0,0.0,0.0,0.0,0.0,0.0,0.0,0.0,0.0,0.0,0.0,0.0,0.0,0.0,0.0,0.0,0.0,0.0,0.0,0.0,0.0,0.0,0.0,0.0,0.0,0.0,0.0,0.0,0.0,0.0,0.0,0.0,0.0,0.0,0.0,0.0,0.0,0.0,0.0,0.0,0.0,0.0,0.0,0.0,0.0,0.0,0.0,0.0,0.0,0.0,0.0,0.0,0.0,0.0,0.0,0.0,0.0,0.0,0.0,0.0,0.0,0.0,0.0,0.0,0.0,0.0,0.0,0.0,0.0,0.0,0.0,0.0,0.0,0.0,0.0,0.0,0.0,0.0,0.0,0.0,0.0,0.0,0.0,0.0,0.0,0.0,0.0,0.0,0.0,0.0,0.0,0.0,0.0,0.0,0.0,0.0,0.0,0.0,0.0,0.0,0.0,0.0,0.0,0.0,0.0,0.0,0.0,0.0,0.0,0.0,0.0,0.0,0.0,0.0,0.0,0.0,0.0,0.0,0.0,0.0,0.0,0.0,0.0,0.0,0.0,0.0,0.0,0.0,0.0,0.0,0.0,0.0,0.0,0.0,0.0,0.0,0.0,0.0,0.0,0.0,0.0,0.0,0.0,0.0,0.0,0.0,0.0,0.0,0.0,0.0,0.0,0.0,0.0,0.0,0.0,0.0,0.0,0.0,0.0,0.0,0.0,0.0,0.0,0.0,0.0,0.0,0.0,0.0,0.0,0.0,0.0,0.0,0.0,0.0,0.0,0.0,0.0,0.0,0.0,0.0,0.0,0.0,0.0,0.0,0.0,0.0,0.0,0.0,0.0,0.0,0.0,0.0,0.0,0.0,0.0,0.0,0.0,0.0,0.0,0.0,0.0,0.0,0.0,0.0,0.0,0.0,0.0,0.0,0.0,0.0,0.0,0.0,0.0,0.0,0.0,0.0,0.0,0.0,0.0,0.0,0.0,0.0,0.0,0.0,0.0,0.0,0.0,0.0,0.0,0.0,0.0,0.0,0.0,0.0,0.0,0.0,0.0,0.0,0.0,0.0,0.0,0.0,0.0,0.0,0.0,0.0,0.0,0.0,0.0,0.0,0.0,0.0,0.0,0.0,0.0,0.0,0.0,0.0,0.0,0.0,0.0,0.0,0.0,0.0,0.0,0.0,0.0,0.0,0.0,0.0,0.0,0.0,0.0,0.0,0.0,0.0,0.0,0.0,0.0,0.0,0.0,0.0,0.0,0.0,0.0,0.0,0.0,0.0,0.0,0.0,0.0,0.0,0.0,0.0,0.0,0.0,0.0,0.0,0.0,0.0,0.0,0.0,0.0,0.0,0.0,0.0,0.0,0.0,0.0,0.0,0.0,0.0,0.0,0.0,0.0,0.0,0.0,0.0,0.0,0.0,0.0,0.0,0.0,0.0,0.0,0.0,0.0,0.0,0.0,0.0,0.0,0.0,0.0,0.0,0.0,0.0,0.0,0.0,0.0,0.0,0.0,0.0,0.0,0.0,0.0,0.0,0.0,0.0,0.0,0.0,0.0,0.0,0.0,0.0,0.0,0.0,0.0,0.0,0.0,0.0,0.0,0.0,0.0,0.0,0.0,0.0,0.0,0.0,0.0,0.0,0.0,0.0,0.0,0.0,0.0,0.0,0.0,0.0,0.0,0.0,0.0,0.0,0.0,0.0,0.0,0.0,0.0,0.0,0.0,0.0,0.0,0.0,0.0,0.0,0.0,0.0,0.0,0.0,0.0,0.0,0.0,0.0,0.0,0.0,0.0,0.0,0.0,0.0,0.0,0.0,0.0,0.0,0.0,0.0,0.0,0.0,0.0,0.0,0.0,0.0,0.0,0.0,0.0,0.0,0.0,0.0,0.0,0.0,0.0,0.0,0.0,0.0,0.0,0.0,0.0,0.0,0.0,0.0,0.0,0.0,0.0,0.0,0.0,0.0,0.0,0.0,0.0,0.0,0.0,0.0,0.0,0.0,0.0,0.0,0.0,0.0,0.0,0.0,0.0,0.0,0.0,0.0,0.0,0.0,0.0,0.0,0.0,0.0,0.0,0.0,0.0,0.0,0.0,0.0,0.0,0.0,0.0,0.0,0.0,0.0,0.0,0.0,0.0,0.0,0.0,0.0,0.0,0.0,0.0,0.0,0.0,0.0,0.0,0.0,0.0,0.0,0.0,0.0,0.0,0.0,0.0,0.0,0.0,0.0,0.0,0.0,0.0,0.0,0.0,0.0,0.0,0.0,0.0,0.0,0.0,0.0,0.0,0.0,0.0,0.0,0.0,0.0,0.0,0.0,0.0,0.0,0.0,0.0,0.0,0.0,0.0,0.0,0.0,0.0,0.0,0.0,0.0,0.0,0.0,0.0,0.0,0.0,0.0,0.0,0.0,0.0,0.0,0.0,0.0,0.0,0.0,0.0,0.0,0.0,0.0,0.0,0.0,0.0,0.0,0.0,0.0,0.0,0.0,0.0,0.0,0.0,0.0,0.0,0.0,0.0,0.0,0.0,0.0,0.0,0.0,0.0,0.0,0.0,0.0,0.0,0.0,0.0,0.0,0.0,0.0,0.0,0.0,0.0,0.0,0.0,0.0,0.0,0.0,0.0,0.0,0.0,0.0,0.0,0.0,0.0,0.0,0.0,0.0,0.0,0.0,0.0,0.0,0.0,0.0,0.0,0.0,0.0,0.0,0.0,0.0,0.0,0.0,0.0,0.0,0.0,0.0,0.0,0.0,0.0,0.0,0.0,0.0,0.0,0.0,0.0,0.0,0.0,0.0,0.0,0.0,0.0,0.0,0.0,0.0,0.0,0.0,0.0,0.0,0.0,0.0,0.0,0.0,0.0,0.0,0.0,0.0,0.0,0.0,0.0,0.0,0.0,0.0,0.0,0.0,0.0,0.0,0.0,0.0,0.0,0.0,0.0,0.0,0.1481,0.4992,0.2019,0.0807,0.2551,0.0941,0.0,0.0,0.0,0.0,0.0,0.0,0.0,0.0,0.0,0.0,0.0,0.0,0.0,0.0,0.0,0.0,0.0,0.0,0.0,0.0,0.0,0.0,0.0,0.0,0.0,0.0,0.0,0.0,0.0,0.0,0.0,0.0,0.0,0.0,0.0,0.0,0.0,0.0,0.0,0.0,0.0,0.0,0.0,0.0,0.0,0.0,0.0,0.0,0.0,0.0,0.0,0.0,0.0,0.0,0.0,0.0,0.0,0.0,0.0,0.0,0.0,0.0,0.0,0.0,0.0,0.0,0.0,0.0,0.0,0.0,0.0,0.0,0.0,0.0,0.0,0.0,0.0,0.0,0.0,0.0,0.0,0.0,0.0,0.0,0.0,0.0,0.0,0.0,0.0,0.0,0.0,0.0,0.0,0.0,0.0,0.0,0.0,0.0,0.0,0.0,0.0,0.0,0.0,0.0,0.0,0.0,0.2848,1.0084,0.5417,0.2965,0.5232,0.3358,0.1478,0.0,0.0,0.0,0.0,0.0,0.0,0.0,0.0,0.0,0.0,0.0,0.0,0.0,0.0,0.0,0.0,0.0,0.0,0.0,0.0,0.0,0.0,0.0,0.0,0.0,0.0,0.0,0.0,0.0,0.0,0.0,0.0,0.0,0.0,0.0,0.0,0.0,0.0,0.0,0.0,0.0,0.0,0.0,0.0,0.0,0.0,0.0,0.0,0.0,0.0,0.0,0.0,0.0,0.0,0.0,0.0,0.0,0.0,0.0,0.0,0.0,0.0,0.0,0.0,0.0,0.0,0.0,0.0,0.0,0.0,0.0,0.0,0.0,0.0,0.0,0.0,0.0,0.0,0.0,0.0,0.0,0.0,0.0,0.0,0.0,0.0,0.0,0.0,0.0,0.0,0.0,0.0,0.0,0.0,0.0,0.0,0.0,0.0,0.0,0.0,0.0,0.0,0.0,0.0,0.0,0.2918,1.0079,0.993,0.834,0.5637,0.7937,0.6589,0.0268,0.0,0.0,0.0,0.0,0.0,0.0,0.0,0.0,0.0,0.0,0.0,0.0,0.0,0.0,0.0,0.0,0.0,0.0,0.0,0.0,0.0,0.0,0.0,0.0,0.0,0.0,0.0,0.0,0.0,0.0,0.0,0.0,0.0,0.0,0.0,0.0,0.0,0.0,0.0,0.0,0.0,0.0,0.0,0.0,0.0,0.0,0.0,0.0,0.0,0.0,0.0,0.0,0.0,0.0,0.0,0.0,0.0,0.0,0.0,0.0,0.0,0.0,0.0,0.0,0.0,0.0,0.0,0.0,0.0,0.0,0.0,0.0,0.0,0.0,0.0,0.0,0.0,0.0,0.0,0.0,0.0,0.0,0.0,0.0,0.0,0.0,0.0,0.0,0.0,0.0,0.0,0.0,0.0,0.0,0.0,0.0,0.0,0.0,0.0,0.0,0.0,0.0,0.0,0.407,0.7008,0.7788,0.9757,1.0416,0.8922,1.0203,0.9621,0.6377,0.217,0.0,0.0,0.0,0.0,0.0,0.0,0.0,0.0,0.0,0.0,0.0,0.0,0.0,0.0,0.0,0.0,0.0,0.0,0.0,0.0,0.0,0.0,0.0,0.0,0.0,0.0,0.0,0.0,0.0,0.0,0.0,0.0,0.0,0.0,0.0,0.0,0.0,0.0,0.0,0.0,0.0,0.0,0.0,0.0,0.0,0.0,0.0,0.0,0.0,0.0,0.0,0.0,0.0,0.0,0.0,0.0,0.0,0.0,0.0,0.0,0.0,0.0,0.0,0.0,0.0,0.0,0.0,0.0,0.0,0.0,0.0,0.0,0.0,0.0,0.0,0.0,0.0,0.0,0.0,0.0,0.0,0.0,0.0,0.0,0.0,0.0,0.0,0.0,0.0,0.0,0.0,0.0,0.0,0.0,0.0,0.0,0.0,0.0,0.0,0.1843,0.326,0.326,0.7243,0.922,0.7445,0.9719,1.126,1.1165,1.1199,1.1034,1.0913,0.578,0.2603,0.1628,0.0543,0.0,0.0,0.0,0.0,0.0,0.0,0.0,0.0,0.0,0.0,0.0,0.0,0.0,0.0,0.0,0.0,0.0,0.0,0.0,0.0,0.0,0.0,0.0,0.0,0.0,0.0,0.0,0.0,0.0,0.0,0.0,0.0,0.0,0.0,0.0,0.0,0.0,0.0,0.0,0.0,0.0,0.0,0.0,0.0,0.0,0.0,0.0,0.0,0.0,0.0,0.0,0.0,0.0,0.0,0.0,0.0,0.0,0.0,0.0,0.0,0.0,0.0,0.0,0.0,0.0,0.0,0.0,0.0,0.0,0.0,0.0,0.0,0.0,0.0,0.0,0.0,0.0,0.0,0.0,0.0,0.0,0.0,0.0,0.0,0.0,0.0,0.0,0.0,0.0,0.0,0.0,0.0,0.0,0.0,0.0,0.0,0.6566,1.1279,1.1279,0.8155,0.7365,1.0851,1.1275,1.1201,1.1172,1.1165,1.1179,1.1344,1.0922,0.9082,0.5716,0.1953,0.0,0.0,0.0,0.0,0.0,0.0,0.0,0.0,0.0,0.0,0.0,0.0,0.0,0.0,0.0,0.0,0.0,0.0,0.0,0.0,0.0,0.0,0.0,0.0,0.0,0.0,0.0,0.0,0.0,0.0,0.0,0.0,0.0,0.0,0.0,0.0,0.0,0.0,0.0,0.0,0.0,0.0,0.0,0.0,0.0,0.0,0.0,0.0,0.0,0.0,0.0,0.0,0.0,0.0,0.0,0.0,0.0,0.0,0.0,0.0,0.0,0.0,0.0,0.0,0.0,0.0,0.0,0.0,0.0,0.0,0.0,0.0,0.0,0.0,0.0,0.0,0.0,0.0,0.0,0.0,0.0,0.0,0.0,0.0,0.0,0.0,0.0,0.0,0.0,0.0,0.0,0.0,0.0,0.0,0.0,0.0,0.672,1.1596,1.1596,1.0366,1.0167,1.1435,1.1558,1.1531,1.147,1.1463,1.143,1.1335,1.1348,1.0741,0.9515,0.8278,0.6446,0.3909,0.126,0.0,0.0,0.0,0.0,0.0,0.0,0.0,0.0,0.0,0.0,0.0,0.0,0.0,0.0,0.0,0.0,0.0,0.0,0.0,0.0,0.0,0.0,0.0,0.0,0.0,0.0,0.0,0.0,0.0,0.0,0.0,0.0,0.0,0.0,0.0,0.0,0.0,0.0,0.0,0.0,0.0,0.0,0.0,0.0,0.0,0.0,0.0,0.0,0.0,0.0,0.0,0.0,0.0,0.0,0.0,0.0,0.0,0.0,0.0,0.0,0.0,0.0,0.0,0.0,0.0,0.0,0.0,0.0,0.0,0.0,0.0,0.0,0.0,0.0,0.0,0.0,0.0,0.0,0.0,0.0,0.0,0.0,0.0,0.0,0.0,0.0,0.0,0.0,0.0,0.0,0.0,0.0,0.0,0.4374,0.8469,1.1286,1.1536,1.1653,1.164,1.1626,1.1619,1.1619,1.1619,1.1572,1.1477,1.1491,1.1598,1.1362,1.155,0.9683,0.5806,0.4687,0.27,0.0,0.0,0.0,0.0,0.0,0.0,0.0,0.0,0.0,0.0,0.0,0.0,0.0,0.0,0.0,0.0,0.0,0.0,0.0,0.0,0.0,0.0,0.0,0.0,0.0,0.0,0.0,0.0,0.0,0.0,0.0,0.0,0.0,0.0,0.0,0.0,0.0,0.0,0.0,0.0,0.0,0.0,0.0,0.0,0.0,0.0,0.0,0.0,0.0,0.0,0.0,0.0,0.0,0.0,0.0,0.0,0.0,0.0,0.0,0.0,0.0,0.0,0.0,0.0,0.0,0.0,0.0,0.0,0.0,0.0,0.0,0.0,0.0,0.0,0.0,0.0,0.0,0.0,0.0,0.0,0.0,0.0,0.0,0.0,0.0,0.0,0.0,0.0,0.0,0.0,0.0,0.0,0.0146,0.3201,1.0529,1.1536,1.1653,1.1619,1.1619,1.1619,1.1619,1.1619,1.1619,1.1619,1.1619,1.1619,1.1619,1.164,0.9746,0.6098,0.9646,0.7451,0.0292,0.0146,0.0,0.0,0.0,0.0,0.0,0.0,0.0,0.0,0.0,0.0,0.0,0.0,0.0,0.0,0.0,0.0,0.0,0.0,0.0,0.0,0.0,0.0,0.0,0.0,0.0,0.0,0.0,0.0,0.0,0.0,0.0,0.0,0.0,0.0,0.0,0.0,0.0,0.0,0.0,0.0,0.0,0.0,0.0,0.0,0.0,0.0,0.0,0.0,0.0,0.0,0.0,0.0,0.0,0.0,0.0,0.0,0.0,0.0,0.0,0.0,0.0,0.0,0.0,0.0,0.0,0.0,0.0,0.0,0.0,0.0,0.0,0.0,0.0,0.0,0.0,0.0,0.0,0.0,0.0,0.0,0.0,0.0,0.0,0.0,0.0,0.0,0.0,0.0,0.0,0.0,0.2693,0.5357,0.7088,1.0018,1.1742,1.1626,1.1619,1.1619,1.1619,1.1619,1.1619,1.1619,1.1619,1.1619,1.1619,1.164,1.1057,1.0161,0.814,0.6253,0.4216,0.1308,0.0,0.0,0.0,0.0,0.0,0.0,0.0,0.0,0.0,0.0,0.0,0.0,0.0,0.0,0.0,0.0,0.0,0.0,0.0,0.0,0.0,0.0,0.0,0.0,0.0,0.0,0.0,0.0,0.0,0.0,0.0,0.0,0.0,0.0,0.0,0.0,0.0,0.0,0.0,0.0,0.0,0.0,0.0,0.0,0.0,0.0,0.0,0.0,0.0,0.0,0.0,0.0,0.0,0.0,0.0,0.0,0.0,0.0,0.0,0.0,0.0,0.0,0.0,0.0,0.0,0.0,0.0,0.0,0.0,0.0,0.0,0.0,0.0,0.0,0.0,0.0,0.0,0.0,0.0,0.0,0.0,0.0,0.0,0.0,0.3053,0.4283,0.0615,0.0,0.1383,0.508,0.7625,0.8905,0.8671,1.0601,1.1911,1.1823,1.1816,1.1816,1.1816,1.1816,1.1782,1.1714,1.1714,1.1681,1.1619,1.1633,1.1633,1.1633,0.9463,0.8304,0.8164,0.2619,0.0,0.0,0.0,0.0,0.0,0.0,0.0,0.0,0.0,0.0,0.0,0.0,0.0,0.0,0.0,0.0,0.0,0.0,0.0,0.0,0.0,0.0,0.0,0.0,0.0,0.0,0.0,0.0,0.0,0.0,0.0,0.0,0.0,0.0,0.0,0.0,0.0,0.0,0.0,0.0,0.0,0.0,0.0,0.0,0.0,0.0,0.0,0.0,0.0,0.0,0.0,0.0,0.0,0.0,0.0,0.0,0.0,0.0,0.0,0.0,0.0,0.0,0.0,0.0,0.0,0.0,0.0,0.0,0.0,0.0,0.0,0.0,0.0,0.0,0.0,0.0,0.0,0.0,0.0,0.0,0.0,0.0,0.0,0.0,0.6968,0.9976,0.2822,0.1253,0.3599,1.1504,1.2567,1.2381,1.2292,1.2278,1.2108,1.2067,1.206,1.206,1.206,1.206,1.1999,1.1864,1.1864,1.1803,1.1681,1.1681,1.1687,1.1708,1.1735,1.1319,1.0602,0.3955,0.044,0.0,0.0,0.0,0.0,0.0,0.0,0.0,0.0,0.0,0.0,0.0,0.0,0.0,0.0,0.0,0.0,0.0,0.0,0.0,0.0,0.0,0.0,0.0,0.0,0.0,0.0,0.0,0.0,0.0,0.0,0.0,0.0,0.0,0.0,0.0,0.0,0.0,0.0,0.0,0.0,0.0,0.0,0.0,0.0,0.0,0.0,0.0,0.0,0.0,0.0,0.0,0.0,0.0,0.0,0.0,0.0,0.0,0.0,0.0,0.0,0.0,0.0,0.0,0.0,0.0,0.0,0.0,0.0,0.0,0.0,0.0,0.0,0.0,0.0,0.0,0.0,0.0,0.0,0.0,0.0,0.0,0.0,0.0,0.6896,1.1972,1.056,0.7373,0.7037,1.1934,1.2549,1.2467,1.2152,1.2271,1.2203,1.2074,1.206,1.206,1.206,1.206,1.2047,1.202,1.202,1.2013,1.1986,1.1986,1.1986,1.1993,1.1999,1.0197,0.6746,0.5394,0.3001,0.0,0.0,0.0,0.0,0.0,0.0,0.0,0.0,0.0,0.0,0.0,0.0,0.0,0.0,0.0,0.0,0.0,0.0,0.0,0.0,0.0,0.0,0.0,0.0,0.0,0.0,0.0,0.0,0.0,0.0,0.0,0.0,0.0,0.0,0.0,0.0,0.0,0.0,0.0,0.0,0.0,0.0,0.0,0.0,0.0,0.0,0.0,0.0,0.0,0.0,0.0,0.0,0.0,0.0,0.0,0.0,0.0,0.0,0.0,0.0,0.0,0.0,0.0,0.0,0.0,0.0,0.0,0.0,0.0,0.0,0.0,0.0,0.0,0.0,0.0,0.0,0.0,0.0,0.0,0.0,0.0,0.1413,0.5814,0.8011,1.0063,1.2141,1.0837,1.018,1.2238,1.2569,1.2535,1.2427,1.2406,1.2372,1.2298,1.2291,1.2291,1.2291,1.2291,1.2257,1.2182,1.2182,1.2142,1.206,1.206,1.206,1.206,1.2074,1.1027,0.892,0.4675,0.1813,0.0,0.0,0.0,0.0,0.0,0.0,0.0,0.0,0.0,0.0,0.0,0.0,0.0,0.0,0.0,0.0,0.0,0.0,0.0,0.0,0.0,0.0,0.0,0.0,0.0,0.0,0.0,0.0,0.0,0.0,0.0,0.0,0.0,0.0,0.0,0.0,0.0,0.0,0.0,0.0,0.0,0.0,0.0,0.0,0.0,0.0,0.0,0.0,0.0,0.0,0.0,0.0,0.0,0.0,0.0,0.0,0.0,0.0,0.0,0.0,0.0,0.0,0.0,0.0,0.0,0.0,0.0,0.0,0.0,0.0,0.0,0.0,0.0,0.0,0.0,0.0,0.0,0.0,0.0,0.0,0.1413,0.4711,1.136,0.974,0.8769,1.1959,1.2562,1.2542,1.2542,1.2542,1.2535,1.2508,1.2501,1.2501,1.2501,1.2501,1.2501,1.2501,1.2501,1.2454,1.2338,1.2338,1.2277,1.2155,1.2155,1.2155,1.2155,1.2176,1.221,1.194,0.4715,0.0914,0.0,0.0,0.0,0.0,0.0,0.0,0.0,0.0,0.0,0.0,0.0,0.0,0.0,0.0,0.0,0.0,0.0,0.0,0.0,0.0,0.0,0.0,0.0,0.0,0.0,0.0,0.0,0.0,0.0,0.0,0.0,0.0,0.0,0.0,0.0,0.0,0.0,0.0,0.0,0.0,0.0,0.0,0.0,0.0,0.0,0.0,0.0,0.0,0.0,0.0,0.0,0.0,0.0,0.0,0.0,0.0,0.0,0.0,0.0,0.0,0.0,0.0,0.0,0.0,0.0,0.0,0.0,0.0,0.0,0.0,0.0,0.0,0.0,0.0,0.0,0.0,0.0,0.0,0.0,0.0,0.6128,1.1522,1.2324,1.2115,1.2076,1.24,1.2528,1.2508,1.2508,1.2508,1.2508,1.2501,1.2501,1.2501,1.2501,1.2501,1.2501,1.2501,1.2501,1.2494,1.2481,1.2481,1.2474,1.2461,1.2461,1.2461,1.2461,1.2461,1.2501,1.24,0.7808,0.3589,0.0,0.0,0.0,0.0,0.0,0.0,0.0,0.0,0.0,0.0,0.0,0.0,0.0,0.0,0.0,0.0,0.0,0.0,0.0,0.0,0.0,0.0,0.0,0.0,0.0,0.0,0.0,0.0,0.0,0.0,0.0,0.0,0.0,0.0,0.0,0.0,0.0,0.0,0.0,0.0,0.0,0.0,0.0,0.0,0.0,0.0,0.0,0.0,0.0,0.0,0.0,0.0,0.0,0.0,0.0,0.0,0.0,0.0,0.0,0.0,0.0,0.0,0.0,0.0,0.0,0.0,0.0,0.0,0.0,0.0,0.0,0.0,0.0,0.0,0.0,0.0,0.0,0.0,0.157,0.6602,1.0241,1.2474,1.2434,1.2569,1.2549,1.2528,1.2508,1.2501,1.2501,1.2501,1.2501,1.2501,1.2501,1.2501,1.2501,1.2501,1.2501,1.2501,1.2501,1.2501,1.2501,1.2522,1.2522,1.2501,1.2522,1.2522,1.2501,1.2501,1.2535,1.2447,0.8306,0.407,0.0,0.0,0.0,0.0,0.0,0.0,0.0,0.0,0.0,0.0,0.0,0.0,0.0,0.0,0.0,0.0,0.0,0.0,0.0,0.0,0.0,0.0,0.0,0.0,0.0,0.0,0.0,0.0,0.0,0.0,0.0,0.0,0.0,0.0,0.0,0.0,0.0,0.0,0.0,0.0,0.0,0.0,0.0,0.0,0.0,0.0,0.0,0.0,0.0,0.0,0.0,0.0,0.0,0.0,0.0,0.0,0.0,0.0,0.0,0.0,0.0,0.0,0.0,0.0,0.0,0.0,0.0,0.0,0.0,0.0,0.0,0.0,0.0,0.0,0.0,0.0,0.0,0.0,0.2512,1.0884,1.2474,1.2454,1.2562,1.2542,1.2528,1.2508,1.2501,1.2501,1.2501,1.2501,1.2501,1.2501,1.2501,1.2501,1.2501,1.2501,1.2501,1.2501,1.2501,1.2501,1.2501,1.2528,1.2528,1.2515,1.2528,1.2528,1.2515,1.2508,1.2535,1.2427,0.8301,0.407,0.0,0.0,0.0,0.0,0.0,0.0,0.0,0.0,0.0,0.0,0.0,0.0,0.0,0.0,0.0,0.0,0.0,0.0,0.0,0.0,0.0,0.0,0.0,0.0,0.0,0.0,0.0,0.0,0.0,0.0,0.0,0.0,0.0,0.0,0.0,0.0,0.0,0.0,0.0,0.0,0.0,0.0,0.0,0.0,0.0,0.0,0.0,0.0,0.0,0.0,0.0,0.0,0.0,0.0,0.0,0.0,0.0,0.0,0.0,0.0,0.0,0.0,0.0,0.0,0.0,0.0,0.0,0.0,0.0,0.0,0.0,0.0,0.0,0.0,0.0,0.0,0.0,0.0,0.2512,1.0884,1.246,1.244,1.2556,1.2522,1.2501,1.2501,1.2501,1.2501,1.2501,1.2501,1.2501,1.2501,1.2501,1.2501,1.2501,1.2501,1.2501,1.2501,1.2501,1.2501,1.2501,1.2501,1.2522,1.2549,1.2522,1.2522,1.2556,1.2522,1.2522,1.2393,0.8292,0.407,0.0,0.0,0.0,0.0,0.0,0.0,0.0,0.0,0.0,0.0,0.0,0.0,0.0,0.0,0.0,0.0,0.0,0.0,0.0,0.0,0.0,0.0,0.0,0.0,0.0,0.0,0.0,0.0,0.0,0.0,0.0,0.0,0.0,0.0,0.0,0.0,0.0,0.0,0.0,0.0,0.0,0.0,0.0,0.0,0.0,0.0,0.0,0.0,0.0,0.0,0.0,0.0,0.0,0.0,0.0,0.0,0.0,0.0,0.0,0.0,0.0,0.0,0.0,0.0,0.0,0.0,0.0,0.0,0.0,0.0,0.0,0.0,0.0,0.0,0.0,0.0,0.0,0.4554,0.8494,0.8315,1.0514,1.2556,1.2522,1.2508,1.2501,1.2501,1.2501,1.2501,1.2501,1.2501,1.2501,1.2501,1.2501,1.2501,1.2501,1.2501,1.2501,1.2501,1.2501,1.2501,1.2501,1.2522,1.2528,1.2522,1.2528,1.2542,1.2556,1.2542,1.2562,1.2298,0.5332,0.1255,0.0,0.0,0.0,0.0,0.0,0.0,0.0,0.0,0.0,0.0,0.0,0.0,0.0,0.0,0.0,0.0,0.0,0.0,0.0,0.0,0.0,0.0,0.0,0.0,0.0,0.0,0.0,0.0,0.0,0.0,0.0,0.0,0.0,0.0,0.0,0.0,0.0,0.0,0.0,0.0,0.0,0.0,0.0,0.0,0.0,0.0,0.0,0.0,0.0,0.0,0.0,0.0,0.0,0.0,0.0,0.0,0.0,0.0,0.0,0.0,0.0,0.0,0.0,0.0,0.0,0.0,0.0,0.0,0.0,0.0,0.0,0.0,0.0,0.0,0.2356,0.4711,0.4711,0.7542,0.9901,0.8769,1.0658,1.2542,1.2508,1.2501,1.2501,1.2501,1.2501,1.2501,1.2501,1.2501,1.2501,1.2501,1.2501,1.2501,1.2501,1.2501,1.2501,1.2501,1.2501,1.2501,1.2501,1.2522,1.2535,1.2542,1.2549,1.2562,1.2427,1.0981,1.0197,1.0068,0.6438,0.2983,0.0,0.0,0.0,0.0,0.0,0.0,0.0,0.0,0.0,0.0,0.0,0.0,0.0,0.0,0.0,0.0,0.0,0.0,0.0,0.0,0.0,0.0,0.0,0.0,0.0,0.0,0.0,0.0,0.0,0.0,0.0,0.0,0.0,0.0,0.0,0.0,0.0,0.0,0.0,0.0,0.0,0.0,0.0,0.0,0.0,0.0,0.0,0.0,0.0,0.0,0.0,0.0,0.0,0.0,0.0,0.0,0.0,0.0,0.0,0.0,0.0,0.0,0.0,0.0,0.0,0.0,0.0,0.0,0.0,0.0,0.0,0.0,0.0,0.0,0.6445,1.2481,1.2481,0.9422,0.7821,1.1759,1.2549,1.2542,1.2508,1.2501,1.2501,1.2501,1.2501,1.2501,1.2501,1.2501,1.2501,1.2501,1.2501,1.2501,1.2501,1.2501,1.2501,1.2501,1.2501,1.2501,1.2501,1.2501,1.2535,1.244,1.2251,1.2265,1.2481,0.8632,0.6417,0.5945,0.9756,0.7389,0.0,0.0,0.0,0.0,0.0,0.0,0.0,0.0,0.0,0.0,0.0,0.0,0.0,0.0,0.0,0.0,0.0,0.0,0.0,0.0,0.0,0.0,0.0,0.0,0.0,0.0,0.0,0.0,0.0,0.0,0.0,0.0,0.0,0.0,0.0,0.0,0.0,0.0,0.0,0.0,0.0,0.0,0.0,0.0,0.0,0.0,0.0,0.0,0.0,0.0,0.0,0.0,0.0,0.0,0.0,0.0,0.0,0.0,0.0,0.0,0.0,0.0,0.0,0.0,0.0,0.0,0.0,0.0,0.0,0.0,0.0,0.0,0.0,0.0,0.6445,1.2481,1.2481,1.1797,1.1286,1.2238,1.2535,1.2515,1.2501,1.2501,1.2501,1.2501,1.2501,1.2501,1.2501,1.2501,1.2501,1.2501,1.2501,1.2501,1.2501,1.2501,1.2501,1.2501,1.2501,1.2501,1.2501,1.2501,1.2508,1.2528,0.9387,0.9256,1.2481,1.1535,0.7715,0.1569,0.2511,0.1885,0.0,0.0,0.0,0.0,0.0,0.0,0.0,0.0,0.0,0.0,0.0,0.0,0.0,0.0,0.0,0.0,0.0,0.0,0.0,0.0,0.0,0.0,0.0,0.0,0.0,0.0,0.0,0.0,0.0,0.0,0.0,0.0,0.0,0.0,0.0,0.0,0.0,0.0,0.0,0.0,0.0,0.0,0.0,0.0,0.0,0.0,0.0,0.0,0.0,0.0,0.0,0.0,0.0,0.0,0.0,0.0,0.0,0.0,0.0,0.0,0.0,0.0,0.0,0.0,0.0,0.0,0.0,0.0,0.0,0.0,0.0,0.0,0.0,0.0,0.5019,1.0225,1.2141,1.2576,1.2528,1.2528,1.2515,1.2501,1.2501,1.2501,1.2501,1.2501,1.2501,1.2501,1.2501,1.2501,1.2501,1.2501,1.2501,1.2501,1.2501,1.2501,1.2501,1.2501,1.2501,1.2501,1.2501,1.2501,1.2508,1.2528,0.6559,0.642,1.2467,0.8664,0.6452,0.5655,0.1728,0.0,0.0,0.0,0.0,0.0,0.0,0.0,0.0,0.0,0.0,0.0,0.0,0.0,0.0,0.0,0.0,0.0,0.0,0.0,0.0,0.0,0.0,0.0,0.0,0.0,0.0,0.0,0.0,0.0,0.0,0.0,0.0,0.0,0.0,0.0,0.0,0.0,0.0,0.0,0.0,0.0,0.0,0.0,0.0,0.0,0.0,0.0,0.0,0.0,0.0,0.0,0.0,0.0,0.0,0.0,0.0,0.0,0.0,0.0,0.0,0.0,0.0,0.0,0.0,0.0,0.0,0.0,0.0,0.0,0.0,0.0,0.0,0.0,0.0316,0.1737,0.4252,0.7554,1.1698,1.2617,1.2569,1.2569,1.2569,1.2569,1.2569,1.2569,1.2562,1.2542,1.2535,1.2528,1.2508,1.2501,1.2501,1.2501,1.2501,1.2501,1.2501,1.2501,1.2501,1.2501,1.2501,1.2501,1.2501,1.2501,1.2515,1.2556,0.5471,0.4852,1.0531,0.345,0.3611,1.0403,0.3297,0.0,0.0,0.0,0.0,0.0,0.0,0.0,0.0,0.0,0.0,0.0,0.0,0.0,0.0,0.0,0.0,0.0,0.0,0.0,0.0,0.0,0.0,0.0,0.0,0.0,0.0,0.0,0.0,0.0,0.0,0.0,0.0,0.0,0.0,0.0,0.0,0.0,0.0,0.0,0.0,0.0,0.0,0.0,0.0,0.0,0.0,0.0,0.0,0.0,0.0,0.0,0.0,0.0,0.0,0.0,0.0,0.0,0.0,0.0,0.0,0.0,0.0,0.0,0.0,0.0,0.0,0.0,0.0,0.0,0.0,0.0,0.0,0.0,0.1942,0.9577,0.8898,0.7733,1.2115,1.2915,1.2888,1.2888,1.2888,1.2888,1.2888,1.2888,1.2847,1.2712,1.2698,1.2651,1.2515,1.2501,1.2501,1.2501,1.2501,1.2501,1.2501,1.2501,1.2501,1.2501,1.2501,1.2501,1.2501,1.2501,1.2515,1.2556,1.1311,0.7681,0.1876,0.0627,0.0628,0.1885,0.0628,0.0,0.0,0.0,0.0,0.0,0.0,0.0,0.0,0.0,0.0,0.0,0.0,0.0,0.0,0.0,0.0,0.0,0.0,0.0,0.0,0.0,0.0,0.0,0.0,0.0,0.0,0.0,0.0,0.0,0.0,0.0,0.0,0.0,0.0,0.0,0.0,0.0,0.0,0.0,0.0,0.0,0.0,0.0,0.0,0.0,0.0,0.0,0.0,0.0,0.0,0.0,0.0,0.0,0.0,0.0,0.0,0.0,0.0,0.0,0.0,0.0,0.0,0.0,0.0,0.0,0.0,0.0,0.0,0.0,0.0,0.1139,0.6025,0.717,0.7653,0.9435,0.9905,1.07,1.2668,1.2976,1.2963,1.2963,1.2963,1.2963,1.2963,1.2963,1.2935,1.2868,1.2854,1.2827,1.2759,1.2752,1.2752,1.2752,1.2752,1.2718,1.263,1.2623,1.2589,1.2508,1.2501,1.2501,1.2501,1.2501,1.2508,1.2528,1.2562,0.9558,0.3439,0.1096,0.0,0.0,0.0,0.0,0.0,0.0,0.0,0.0,0.0,0.0,0.0,0.0,0.0,0.0,0.0,0.0,0.0,0.0,0.0,0.0,0.0,0.0,0.0,0.0,0.0,0.0,0.0,0.0,0.0,0.0,0.0,0.0,0.0,0.0,0.0,0.0,0.0,0.0,0.0,0.0,0.0,0.0,0.0,0.0,0.0,0.0,0.0,0.0,0.0,0.0,0.0,0.0,0.0,0.0,0.0,0.0,0.0,0.0,0.0,0.0,0.0,0.0,0.0,0.0,0.0,0.0,0.0,0.0,0.0,0.0,0.0,0.0,0.0,0.2132,1.1038,1.3377,1.2527,0.9159,1.079,1.3105,1.3091,1.3078,1.3064,1.3064,1.3064,1.3064,1.3064,1.3064,1.3051,1.3017,1.301,1.2996,1.2963,1.2963,1.2963,1.2963,1.2963,1.2915,1.2793,1.2786,1.2718,1.2562,1.2522,1.2501,1.2501,1.2501,1.2501,1.2501,1.2535,1.0975,0.7673,0.2502,0.0,0.0,0.0,0.0,0.0,0.0,0.0,0.0,0.0,0.0,0.0,0.0,0.0,0.0,0.0,0.0,0.0,0.0,0.0,0.0,0.0,0.0,0.0,0.0,0.0,0.0,0.0,0.0,0.0,0.0,0.0,0.0,0.0,0.0,0.0,0.0,0.0,0.0,0.0,0.0,0.0,0.0,0.0,0.0,0.0,0.0,0.0,0.0,0.0,0.0,0.0,0.0,0.0,0.0,0.0,0.0,0.0,0.0,0.0,0.0,0.0,0.0,0.0,0.0,0.0,0.0,0.0,0.0,0.0,0.0,0.0,0.0,0.0,0.2015,1.1132,1.3358,1.3338,1.2932,1.3085,1.341,1.3376,1.337,1.337,1.337,1.337,1.337,1.337,1.337,1.3322,1.318,1.3159,1.3112,1.2976,1.2963,1.2963,1.2963,1.2963,1.2956,1.2942,1.2942,1.2874,1.2725,1.2583,1.2501,1.2501,1.2501,1.2501,1.2501,1.2535,1.2407,1.1966,0.3912,0.0,0.0,0.0,0.0,0.0,0.0,0.0,0.0,0.0,0.0,0.0,0.0,0.0,0.0,0.0,0.0,0.0,0.0,0.0,0.0,0.0,0.0,0.0,0.0,0.0,0.0,0.0,0.0,0.0,0.0,0.0,0.0,0.0,0.0,0.0,0.0,0.0,0.0,0.0,0.0,0.0,0.0,0.0,0.0,0.0,0.0,0.0,0.0,0.0,0.0,0.0,0.0,0.0,0.0,0.0,0.0,0.0,0.0,0.0,0.0,0.0,0.0,0.0,0.0,0.0,0.0,0.0,0.0,0.0,0.0,0.0,0.0,0.4042,0.8429,0.9086,1.1294,1.3338,1.3437,1.3417,1.3417,1.3403,1.3403,1.3403,1.3403,1.3403,1.3403,1.3403,1.3403,1.3383,1.3322,1.3315,1.3295,1.3241,1.3234,1.3234,1.3234,1.3152,1.3091,1.3091,1.301,1.2935,1.2874,1.2732,1.2603,1.2508,1.2501,1.2501,1.2501,1.2515,1.2535,1.2414,0.6725,0.2503,0.0,0.0,0.0,0.0,0.0,0.0,0.0,0.0,0.0,0.0,0.0,0.0,0.0,0.0,0.0,0.0,0.0,0.0,0.0,0.0,0.0,0.0,0.0,0.0,0.0,0.0,0.0,0.0,0.0,0.0,0.0,0.0,0.0,0.0,0.0,0.0,0.0,0.0,0.0,0.0,0.0,0.0,0.0,0.0,0.0,0.0,0.0,0.0,0.0,0.0,0.0,0.0,0.0,0.0,0.0,0.0,0.0,0.0,0.0,0.0,0.0,0.0,0.0,0.0,0.0,0.0,0.0,0.0,0.0,0.0671,0.3363,0.8605,1.2688,0.9574,1.1093,1.3471,1.3417,1.3403,1.3403,1.3403,1.3403,1.3403,1.3403,1.3403,1.3403,1.3403,1.3403,1.3403,1.3403,1.3403,1.3403,1.3403,1.3403,1.3403,1.3403,1.3308,1.3247,1.3247,1.3159,1.3078,1.303,1.2929,1.2779,1.2583,1.2576,1.2549,1.2501,1.2501,1.2522,1.2556,0.9713,0.5474,0.0,0.0,0.0,0.0,0.0,0.0,0.0,0.0,0.0,0.0,0.0,0.0,0.0,0.0,0.0,0.0,0.0,0.0,0.0,0.0,0.0,0.0,0.0,0.0,0.0,0.0,0.0,0.0,0.0,0.0,0.0,0.0,0.0,0.0,0.0,0.0,0.0,0.0,0.0,0.0,0.0,0.0,0.0,0.0,0.0,0.0,0.0,0.0,0.0,0.0,0.0,0.0,0.0,0.0,0.0,0.0,0.0,0.0,0.0,0.0,0.0,0.0,0.0,0.0,0.0,0.0,0.0,0.0,0.0,0.1991,1.0953,1.3385,1.3372,1.3471,1.3451,1.3444,1.341,1.3403,1.3403,1.3403,1.3403,1.3403,1.3403,1.3403,1.3403,1.3403,1.3403,1.3403,1.3403,1.3403,1.3403,1.3403,1.3403,1.3403,1.3403,1.3403,1.3403,1.3403,1.3403,1.3336,1.3186,1.3173,1.3044,1.2745,1.2732,1.2657,1.2508,1.2501,1.2522,1.2556,1.2434,0.8154,0.0,0.0,0.0,0.0,0.0,0.0,0.0,0.0,0.0,0.0,0.0,0.0,0.0,0.0,0.0,0.0,0.0,0.0,0.0,0.0,0.0,0.0,0.0,0.0,0.0,0.0,0.0,0.0,0.0,0.0,0.0,0.0,0.0,0.0,0.0,0.0,0.0,0.0,0.0,0.0,0.0,0.0,0.0,0.0,0.0,0.0,0.0,0.0,0.0,0.0,0.0,0.0,0.0,0.0,0.0,0.0,0.0,0.0,0.0,0.0,0.0,0.0,0.0,0.0,0.0,0.0,0.0,0.0,0.4441,0.9988,1.2656,1.3351,1.3478,1.3458,1.3437,1.341,1.3403,1.3403,1.3403,1.3403,1.3403,1.3403,1.3403,1.3403,1.3403,1.3403,1.3403,1.3403,1.3403,1.3403,1.3403,1.3403,1.3403,1.3403,1.3403,1.3403,1.3403,1.3403,1.3403,1.3383,1.3336,1.3336,1.32,1.2901,1.2786,1.2712,1.2664,1.2556,1.2508,1.2515,1.2576,0.9735,0.4378,0.1411,0.0,0.0,0.0,0.0,0.0,0.0,0.0,0.0,0.0,0.0,0.0,0.0,0.0,0.0,0.0,0.0,0.0,0.0,0.0,0.0,0.0,0.0,0.0,0.0,0.0,0.0,0.0,0.0,0.0,0.0,0.0,0.0,0.0,0.0,0.0,0.0,0.0,0.0,0.0,0.0,0.0,0.0,0.0,0.0,0.0,0.0,0.0,0.0,0.0,0.0,0.0,0.0,0.0,0.0,0.0,0.0,0.0,0.0,0.0,0.0,0.0,0.0,0.0,0.0,0.0,0.0,0.6217,1.3446,1.3478,1.3325,1.3451,1.3437,1.3417,1.3403,1.3403,1.3403,1.3403,1.3403,1.3403,1.3403,1.3403,1.3403,1.3403,1.3403,1.3403,1.3403,1.3403,1.3403,1.3403,1.3403,1.3403,1.3403,1.3403,1.3403,1.3403,1.3403,1.3403,1.3403,1.3403,1.3403,1.3322,1.3146,1.299,1.2847,1.2732,1.2637,1.2562,1.2501,1.2556,1.0353,0.6257,0.2036,0.0,0.0,0.0,0.0,0.0,0.0,0.0,0.0,0.0,0.0,0.0,0.0,0.0,0.0,0.0,0.0,0.0,0.0,0.0,0.0,0.0,0.0,0.0,0.0,0.0,0.0,0.0,0.0,0.0,0.0,0.0,0.0,0.0,0.0,0.0,0.0,0.0,0.0,0.0,0.0,0.0,0.0,0.0,0.0,0.0,0.0,0.0,0.0,0.0,0.0,0.0,0.0,0.0,0.0,0.0,0.0,0.0,0.0,0.0,0.0,0.0,0.0,0.0,0.0,0.0158,0.0969,0.6675,1.282,1.3258,1.3471,1.3437,1.341,1.3403,1.3403,1.3403,1.3403,1.3403,1.3403,1.3403,1.3403,1.3403,1.3403,1.3403,1.3403,1.3403,1.3403,1.3403,1.3403,1.3403,1.3403,1.3403,1.3403,1.3403,1.3403,1.3403,1.3403,1.3403,1.3403,1.3403,1.3403,1.3403,1.3403,1.3254,1.3044,1.2773,1.2745,1.2664,1.2522,1.2542,1.0497,0.6729,0.2189,0.0,0.0,0.0,0.0,0.0,0.0,0.0,0.0,0.0,0.0,0.0,0.0,0.0,0.0,0.0,0.0,0.0,0.0,0.0,0.0,0.0,0.0,0.0,0.0,0.0,0.0,0.0,0.0,0.0,0.0,0.0,0.0,0.0,0.0,0.0,0.0,0.0,0.0,0.0,0.0,0.0,0.0,0.0,0.0,0.0,0.0,0.0,0.0,0.0,0.0,0.0,0.0,0.0,0.0,0.0,0.0,0.0,0.0,0.0,0.0,0.0,0.0,0.0,0.0,0.1262,0.8415,0.944,0.8806,1.237,1.3437,1.341,1.3403,1.3403,1.3403,1.3403,1.3403,1.3403,1.3403,1.3403,1.3403,1.3403,1.3403,1.3403,1.3403,1.3403,1.3403,1.3403,1.3403,1.3403,1.3403,1.3403,1.3403,1.3403,1.3403,1.3403,1.3403,1.3403,1.3403,1.3403,1.3403,1.3403,1.3403,1.3254,1.3146,1.3078,1.2847,1.2712,1.2678,1.2596,1.2089,1.1005,0.3441,0.0,0.0,0.0,0.0,0.0,0.0,0.0,0.0,0.0,0.0,0.0,0.0,0.0,0.0,0.0,0.0,0.0,0.0,0.0,0.0,0.0,0.0,0.0,0.0,0.0,0.0,0.0,0.0,0.0,0.0,0.0,0.0,0.0,0.0,0.0,0.0,0.0,0.0,0.0,0.0,0.0,0.0,0.0,0.0,0.0,0.0,0.0,0.0,0.0,0.0,0.0,0.0,0.0,0.0,0.0,0.0,0.0,0.0,0.0,0.0,0.0,0.0,0.0,0.2669,0.6949,1.1857,1.1733,1.0265,1.2694,1.3431,1.3403,1.3403,1.3403,1.3403,1.3403,1.3403,1.3403,1.3403,1.3403,1.3403,1.3403,1.3403,1.3403,1.3403,1.3403,1.3403,1.3403,1.3403,1.3403,1.3403,1.3403,1.3403,1.3403,1.3403,1.3403,1.3403,1.3403,1.3403,1.3403,1.3403,1.3403,1.3403,1.3322,1.3247,1.3173,1.3024,1.2874,1.2732,1.2671,1.2617,1.242,0.5945,0.1877,0.0,0.0,0.0,0.0,0.0,0.0,0.0,0.0,0.0,0.0,0.0,0.0,0.0,0.0,0.0,0.0,0.0,0.0,0.0,0.0,0.0,0.0,0.0,0.0,0.0,0.0,0.0,0.0,0.0,0.0,0.0,0.0,0.0,0.0,0.0,0.0,0.0,0.0,0.0,0.0,0.0,0.0,0.0,0.0,0.0,0.0,0.0,0.0,0.0,0.0,0.0,0.0,0.0,0.0,0.0,0.0,0.0,0.0,0.0,0.0,0.0314,0.1728,0.6915,1.2541,1.3157,1.3205,1.3064,1.3363,1.3424,1.3403,1.3403,1.3403,1.3403,1.3403,1.3403,1.3403,1.3403,1.3403,1.3403,1.3403,1.3403,1.3403,1.3403,1.3403,1.3403,1.3403,1.3403,1.3403,1.3403,1.3403,1.3403,1.3403,1.3403,1.3403,1.3403,1.3403,1.3403,1.3403,1.3403,1.3403,1.3403,1.3403,1.3342,1.3214,1.3186,1.3051,1.2807,1.2752,1.2684,1.2434,0.8934,0.4691,0.0,0.0,0.0,0.0,0.0,0.0,0.0,0.0,0.0,0.0,0.0,0.0,0.0,0.0,0.0,0.0,0.0,0.0,0.0,0.0,0.0,0.0,0.0,0.0,0.0,0.0,0.0,0.0,0.0,0.0,0.0,0.0,0.0,0.0,0.0,0.0,0.0,0.0,0.0,0.0,0.0,0.0,0.0,0.0,0.0,0.0,0.0,0.0,0.0,0.0,0.0,0.0,0.0,0.0,0.0,0.0,0.0,0.0,0.0,0.0,0.1256,0.8498,1.1522,1.2527,1.2935,1.3164,1.3219,1.3329,1.3403,1.3403,1.3403,1.3403,1.3403,1.3403,1.3403,1.3403,1.3403,1.3403,1.3403,1.3403,1.3403,1.3403,1.3403,1.3403,1.3403,1.3403,1.3403,1.3403,1.3403,1.3403,1.3403,1.3403,1.3403,1.3403,1.3403,1.3403,1.3403,1.3403,1.3403,1.3403,1.3403,1.3403,1.339,1.337,1.3241,1.3152,1.3112,1.2854,1.2574,1.243,1.2005,0.7521,0.0,0.0,0.0,0.0,0.0,0.0,0.0,0.0,0.0,0.0,0.0,0.0,0.0,0.0,0.0,0.0,0.0,0.0,0.0,0.0,0.0,0.0,0.0,0.0,0.0,0.0,0.0,0.0,0.0,0.0,0.0,0.0,0.0,0.0,0.0,0.0,0.0,0.0,0.0,0.0,0.0,0.0,0.0,0.0,0.0,0.0,0.0,0.0,0.0,0.0,0.0,0.0,0.0,0.0,0.0,0.0,0.0,0.0,0.0,0.314,0.755,1.136,1.246,1.2644,1.2915,1.315,1.3037,1.3322,1.3403,1.3403,1.3403,1.3403,1.3403,1.3403,1.3403,1.3403,1.3403,1.3403,1.3403,1.3403,1.3403,1.3403,1.3403,1.3403,1.3403,1.3403,1.3403,1.3403,1.3403,1.3403,1.3403,1.3403,1.3403,1.3403,1.3403,1.3403,1.3403,1.3403,1.3403,1.3403,1.3403,1.3403,1.3403,1.3403,1.3336,1.3261,1.3173,1.2963,1.282,1.2588,1.2474,0.9246,0.0,0.0,0.0,0.0,0.0,0.0,0.0,0.0,0.0,0.0,0.0,0.0,0.0,0.0,0.0,0.0,0.0,0.0,0.0,0.0,0.0,0.0,0.0,0.0,0.0,0.0,0.0,0.0,0.0,0.0,0.0,0.0,0.0,0.0,0.0,0.0,0.0,0.0,0.0,0.0,0.0,0.0,0.0,0.0,0.0,0.0,0.0,0.0,0.0,0.0,0.0,0.0,0.0,0.0,0.0,0.0,0.0,0.0314,0.2512,0.7232,1.2481,1.2467,1.2434,1.261,1.2901,1.2976,1.3024,1.3315,1.3403,1.3403,1.3403,1.3403,1.3403,1.3403,1.3403,1.3403,1.3403,1.3403,1.3403,1.3403,1.3403,1.3403,1.3403,1.3403,1.3403,1.3403,1.3403,1.3403,1.3403,1.3403,1.3403,1.3403,1.3403,1.3403,1.3403,1.3403,1.3403,1.3403,1.3403,1.3403,1.3403,1.3403,1.3403,1.3403,1.3403,1.3342,1.3227,1.3085,1.2935,1.2786,1.2514,1.0855,0.0,0.0,0.0,0.0,0.0,0.0,0.0,0.0,0.0,0.0,0.0,0.0,0.0,0.0,0.0,0.0,0.0,0.0,0.0,0.0,0.0,0.0,0.0,0.0,0.0,0.0,0.0,0.0,0.0,0.0,0.0,0.0,0.0,0.0,0.0,0.0,0.0,0.0,0.0,0.0,0.0,0.0,0.0,0.0,0.0,0.0,0.0,0.0,0.0,0.0,0.0,0.0,0.0,0.0,0.0,0.0,0.0,0.1099,0.913,1.2161,1.2474,1.2576,1.2556,1.2603,1.2881,1.2963,1.3024,1.3315,1.3403,1.3403,1.3403,1.3403,1.3403,1.3403,1.3403,1.3403,1.3403,1.3403,1.3403,1.3403,1.3403,1.3403,1.3403,1.3403,1.3403,1.3403,1.3403,1.3403,1.3403,1.3403,1.3403,1.3403,1.3403,1.3403,1.3403,1.3403,1.3403,1.3403,1.3403,1.3403,1.3403,1.3403,1.3403,1.3403,1.3403,1.3397,1.339,1.3234,1.3085,1.2949,1.2688,1.241,0.0,0.0,0.0,0.0,0.0,0.0,0.0,0.0,0.0,0.0,0.0,0.0,0.0,0.0,0.0,0.0,0.0,0.0,0.0,0.0,0.0,0.0,0.0,0.0,0.0,0.0,0.0,0.0,0.0,0.0,0.0,0.0,0.0,0.0,0.0,0.0,0.0,0.0,0.0,0.0,0.0,0.0,0.0,0.0,0.0,0.0,0.0,0.0,0.0,0.0,0.0,0.0,0.0,0.0,0.0,0.0,0.0,0.1256,0.961,1.2474,1.2454,1.2569,1.2603,1.2705,1.2901,1.3024,1.3139,1.3342,1.3403,1.3403,1.3403,1.3403,1.3403,1.3403,1.3403,1.3403,1.3403,1.3403,1.3403,1.3403,1.3403,1.3403,1.3403,1.3403,1.3403,1.3403,1.3403,1.3403,1.3403,1.3403,1.3403,1.3403,1.3403,1.3403,1.3403,1.3403,1.3403,1.3403,1.3403,1.3403,1.3403,1.3403,1.3403,1.3403,1.3403,1.3403,1.3403,1.3247,1.3146,1.3091,1.2888,1.1154,0.0,0.0,0.0,0.0,0.0,0.0,0.0,0.0,0.0,0.0,0.0,0.0,0.0,0.0,0.0,0.0,0.0,0.0,0.0,0.0,0.0,0.0,0.0,0.0,0.0,0.0,0.0,0.0,0.0,0.0,0.0,0.0,0.0,0.0,0.0,0.0,0.0,0.0,0.0,0.0,0.0,0.0,0.0,0.0,0.0,0.0,0.0,0.0,0.0,0.0,0.0,0.0,0.0,0.0,0.0,0.0,0.1728,0.4868,0.8963,1.1329,1.2427,1.2549,1.2623,1.2759,1.2915,1.3057,1.3207,1.3356,1.3403,1.3403,1.3403,1.3403,1.3403,1.3403,1.3403,1.3403,1.3403,1.3403,1.3403,1.3403,1.3403,1.3403,1.3403,1.3403,1.3403,1.3403,1.3403,1.3403,1.3403,1.3403,1.3403,1.3403,1.3403,1.3403,1.3403,1.3403,1.3403,1.3403,1.3403,1.3403,1.3403,1.3403,1.3403,1.3403,1.3403,1.3403,1.3403,1.3302,1.3227,1.3186,1.2976,0.9908,0.0,0.0,0.0,0.0,0.0,0.0,0.0,0.0,0.0,0.0,0.0,0.0,0.0,0.0,0.0,0.0,0.0,0.0,0.0,0.0,0.0,0.0,0.0,0.0,0.0,0.0,0.0,0.0,0.0,0.0,0.0,0.0,0.0,0.0,0.0,0.0,0.0,0.0,0.0,0.0,0.0,0.0,0.0,0.0,0.0,0.0,0.0,0.0,0.0,0.0,0.0,0.0,0.0,0.0,0.0,0.0317,0.5501,1.1992,0.7838,0.908,1.2549,1.2522,1.261,1.2766,1.2922,1.3064,1.3207,1.3356,1.3403,1.3403,1.3403,1.3403,1.3403,1.3403,1.3403,1.3403,1.3403,1.3403,1.3403,1.3403,1.3403,1.3403,1.3403,1.3403,1.3403,1.3403,1.3403,1.3403,1.3403,1.3403,1.3403,1.3403,1.3403,1.3403,1.3403,1.3403,1.3403,1.3403,1.3403,1.3403,1.3403,1.3403,1.3403,1.3403,1.3403,1.3403,1.3403,1.3403,1.3342,1.3057,1.3105,0.8513,0.0,0.0,0.0,0.0,0.0,0.0,0.0,0.0,0.0,0.0,0.0,0.0,0.0,0.0,0.0,0.0,0.0,0.0,0.0,0.0,0.0,0.0,0.0,0.0,0.0,0.0,0.0,0.0,0.0,0.0,0.0,0.0,0.0,0.0,0.0,0.0,0.0,0.0,0.0,0.0,0.0,0.0,0.0,0.0,0.0,0.0,0.0,0.0,0.0,0.0,0.0,0.0,0.0,0.0,0.0812,0.6886,1.0482,1.2311,1.1149,1.1604,1.2562,1.2644,1.2773,1.2922,1.3071,1.322,1.3349,1.339,1.3403,1.3403,1.3403,1.3403,1.3403,1.3403,1.3403,1.3403,1.3403,1.3403,1.3403,1.3403,1.3403,1.3403,1.3403,1.3403,1.3403,1.3403,1.3403,1.3403,1.3403,1.3403,1.3403,1.3403,1.3403,1.3403,1.3403,1.3403,1.3403,1.3403,1.3403,1.3403,1.3403,1.3403,1.3403,1.3403,1.3403,1.3403,1.3403,1.3403,1.3383,1.3177,0.9978,0.5471,0.0,0.0,0.0,0.0,0.0,0.0,0.0,0.0,0.0,0.0,0.0,0.0,0.0,0.0,0.0,0.0,0.0,0.0,0.0,0.0,0.0,0.0,0.0,0.0,0.0,0.0,0.0,0.0,0.0,0.0,0.0,0.0,0.0,0.0,0.0,0.0,0.0,0.0,0.0,0.0,0.0,0.0,0.0,0.0,0.0,0.0,0.0,0.0,0.0,0.0,0.0,0.0,0.0,0.2137,0.5851,1.0639,1.2437,1.244,1.2562,1.2542,1.2556,1.2684,1.2834,1.299,1.3132,1.3281,1.3403,1.3403,1.3403,1.3403,1.3403,1.3403,1.3403,1.3403,1.3403,1.3403,1.3403,1.3403,1.3403,1.3403,1.3403,1.3403,1.3403,1.3403,1.3403,1.3403,1.3403,1.3403,1.3403,1.3403,1.3403,1.3403,1.3403,1.3403,1.3403,1.3403,1.3403,1.3403,1.3403,1.3403,1.3403,1.3403,1.3403,1.3403,1.3403,1.3403,1.3403,1.3403,1.3383,1.3177,0.6866,0.2581,0.0,0.0,0.0,0.0,0.0,0.0,0.0,0.0,0.0,0.0,0.0,0.0,0.0,0.0,0.0,0.0,0.0,0.0,0.0,0.0,0.0,0.0,0.0,0.0,0.0,0.0,0.0,0.0,0.0,0.0,0.0,0.0,0.0,0.0,0.0,0.0,0.0,0.0,0.0,0.0,0.0,0.0,0.0,0.0,0.0,0.0,0.0,0.0,0.0,0.0,0.0,0.0,0.0,0.5103,1.2417,1.2448,1.2423,1.2556,1.2549,1.2535,1.2556,1.2705,1.2861,1.301,1.3152,1.3295,1.3403,1.3403,1.3403,1.3403,1.3403,1.3403,1.3403,1.3403,1.3403,1.3403,1.3403,1.3403,1.3403,1.3403,1.3403,1.3403,1.3403,1.3403,1.3403,1.3403,1.3403,1.3403,1.3403,1.3403,1.3403,1.3403,1.3403,1.3403,1.3403,1.3403,1.3403,1.3403,1.3403,1.3403,1.3403,1.3403,1.3403,1.3403,1.3403,1.3403,1.3403,1.3403,1.3197,1.2453,0.4913,0.0972,0.0,0.0,0.0,0.0,0.0,0.0,0.0,0.0,0.0,0.0,0.0,0.0,0.0,0.0,0.0,0.0,0.0,0.0,0.0,0.0,0.0,0.0,0.0,0.0,0.0,0.0,0.0,0.0,0.0,0.0,0.0,0.0,0.0,0.0,0.0,0.0,0.0,0.0,0.0,0.0,0.0,0.0,0.0,0.0,0.0,0.0,0.0,0.0,0.0,0.0,0.0,0.0,0.0,0.5137,1.243,1.2533,1.2489,1.2549,1.2522,1.2589,1.2712,1.2868,1.3017,1.3159,1.3308,1.3376,1.3403,1.3403,1.3403,1.3403,1.3403,1.3403,1.3403,1.3403,1.3403,1.3403,1.3403,1.3403,1.3403,1.3403,1.3403,1.3403,1.3403,1.3403,1.3403,1.3403,1.3403,1.3403,1.3403,1.3403,1.3403,1.3403,1.3403,1.3403,1.3403,1.3403,1.3403,1.3403,1.3403,1.3403,1.3403,1.3403,1.3403,1.3403,1.3403,1.3403,1.3403,1.3431,1.157,0.8023,0.9963,0.6895,0.0,0.0,0.0,0.0,0.0,0.0,0.0,0.0,0.0,0.0,0.0,0.0,0.0,0.0,0.0,0.0,0.0,0.0,0.0,0.0,0.0,0.0,0.0,0.0,0.0,0.0,0.0,0.0,0.0,0.0,0.0,0.0,0.0,0.0,0.0,0.0,0.0,0.0,0.0,0.0,0.0,0.0,0.0,0.0,0.0,0.0,0.0,0.0,0.0,0.0,0.2694,0.6741,0.6741,0.7833,0.984,1.1907,1.2702,1.2637,1.2623,1.2664,1.2766,1.299,1.3112,1.32,1.3356,1.3403,1.3403,1.3403,1.3403,1.3403,1.3403,1.3403,1.3403,1.3403,1.3403,1.3403,1.3403,1.3403,1.3403,1.3403,1.3403,1.3403,1.3403,1.3403,1.3403,1.3403,1.3403,1.3403,1.3403,1.3403,1.3403,1.3403,1.3403,1.3403,1.3403,1.3403,1.3403,1.3403,1.3403,1.3403,1.3403,1.3403,1.3403,1.3403,1.3403,1.341,1.3424,1.3458,1.1093,0.67,0.6652,0.4292,0.0,0.0,0.0,0.0,0.0,0.0,0.0,0.0,0.0,0.0,0.0,0.0,0.0,0.0,0.0,0.0,0.0,0.0,0.0,0.0,0.0,0.0,0.0,0.0,0.0,0.0,0.0,0.0,0.0,0.0,0.0,0.0,0.0,0.0,0.0,0.0,0.0,0.0,0.0,0.0,0.0,0.0,0.0,0.0,0.0,0.0,0.0,0.0,0.0,0.0,0.5222,1.3385,1.3385,1.122,0.8393,1.1583,1.2749,1.2773,1.2739,1.2766,1.2854,1.3091,1.3193,1.3241,1.3363,1.3403,1.3403,1.3403,1.3403,1.3403,1.3403,1.3403,1.3403,1.3403,1.3403,1.3403,1.3403,1.3403,1.3403,1.3403,1.3403,1.3403,1.3403,1.3403,1.3403,1.3403,1.3403,1.3403,1.3403,1.3403,1.3403,1.3403,1.3403,1.3403,1.3403,1.3403,1.3403,1.3403,1.3403,1.3403,1.3403,1.3403,1.3403,1.3403,1.341,1.3424,1.3451,1.3325,1.1461,0.7889,0.2499,0.0,0.0,0.0,0.0,0.0,0.0,0.0,0.0,0.0,0.0,0.0,0.0,0.0,0.0,0.0,0.0,0.0,0.0,0.0,0.0,0.0,0.0,0.0,0.0,0.0,0.0,0.0,0.0,0.0,0.0,0.0,0.0,0.0,0.0,0.0,0.0,0.0,0.0,0.0,0.0,0.0,0.0,0.0,0.0,0.0,0.0,0.0,0.0,0.0,0.0,0.0,0.5222,1.3385,1.3385,1.2912,1.237,1.2734,1.2816,1.2915,1.2779,1.2901,1.3125,1.3159,1.3261,1.3376,1.3397,1.3403,1.3403,1.3403,1.3403,1.3403,1.3403,1.3403,1.3403,1.3403,1.3403,1.3403,1.3403,1.3403,1.3403,1.3403,1.3403,1.3403,1.3403,1.3403,1.3403,1.3403,1.3403,1.3403,1.3403,1.3403,1.3403,1.3403,1.3403,1.3403,1.3403,1.3403,1.3403,1.3403,1.3403,1.3403,1.3403,1.3403,1.3403,1.3403,1.3431,1.3451,1.3451,1.3351,1.3204,1.2346,0.3868,0.0,0.0,0.0,0.0,0.0,0.0,0.0,0.0,0.0,0.0,0.0,0.0,0.0,0.0,0.0,0.0,0.0,0.0,0.0,0.0,0.0,0.0,0.0,0.0,0.0,0.0,0.0,0.0,0.0,0.0,0.0,0.0,0.0,0.0,0.0,0.0,0.0,0.0,0.0,0.0,0.0,0.0,0.0,0.0,0.0,0.0,0.0,0.0,0.303,0.7757,0.7757,0.9948,1.3325,1.3325,1.3271,1.3171,1.3166,1.3098,1.3071,1.301,1.3071,1.3186,1.3275,1.3349,1.3403,1.3403,1.3403,1.3403,1.3403,1.3403,1.3403,1.3403,1.3403,1.3403,1.3403,1.3403,1.3403,1.3403,1.3403,1.3403,1.3403,1.3403,1.3403,1.3403,1.3403,1.3403,1.3403,1.3403,1.3403,1.3403,1.3403,1.3403,1.3403,1.3403,1.3403,1.3403,1.3403,1.3403,1.3403,1.3403,1.3403,1.3403,1.3403,1.3403,1.3403,1.3437,1.2093,0.9559,1.2154,1.3398,1.3244,0.4212,0.0,0.0,0.0,0.0,0.0,0.0,0.0,0.0,0.0,0.0,0.0,0.0,0.0,0.0,0.0,0.0,0.0,0.0,0.0,0.0,0.0,0.0,0.0,0.0,0.0,0.0,0.0,0.0,0.0,0.0,0.0,0.0,0.0,0.0,0.0,0.0,0.0,0.0,0.0,0.0,0.0,0.0,0.0,0.0,0.0,0.0,0.0,0.0,0.5053,1.3385,1.3385,1.3345,1.3451,1.3451,1.3444,1.3417,1.3241,1.32,1.3227,1.3186,1.32,1.3254,1.3363,1.3403,1.3403,1.3403,1.3403,1.3403,1.3403,1.3403,1.3403,1.3403,1.3403,1.3403,1.3403,1.3403,1.3403,1.3403,1.3403,1.3403,1.3403,1.3403,1.3403,1.3403,1.3403,1.3403,1.3403,1.3403,1.3403,1.3403,1.3403,1.3403,1.3403,1.3403,1.3403,1.3403,1.3403,1.3403,1.3403,1.3403,1.3403,1.3403,1.341,1.3417,1.3417,1.3458,1.1784,0.8566,1.1831,1.2203,0.9647,0.3033,0.0,0.0,0.0,0.0,0.7867,0.0,0.0,0.0,0.0,0.0,0.0,0.0,0.0,0.0,0.0,0.0,0.0,0.0,0.0,0.0,0.0,0.0,0.0,0.0,0.0,0.0,0.0,0.0,0.0,0.0,0.0,0.0,0.0,0.0,0.0,0.0,0.0,0.0,0.0,0.0,0.0,0.0,0.0,0.0,0.0,0.0,0.0,0.0,0.5053,1.3385,1.3385,1.3345,1.3451,1.3451,1.3431,1.3383,1.3227,1.3268,1.337,1.322,1.3268,1.3397,1.3397,1.3403,1.3403,1.3403,1.3403,1.3403,1.3403,1.3403,1.3403,1.3403,1.3403,1.3403,1.3403,1.3403,1.3403,1.3403,1.3403,1.3403,1.3403,1.3403,1.3403,1.3403,1.3403,1.3403,1.3403,1.3403,1.3403,1.3403,1.3403,1.3403,1.3403,1.3403,1.3403,1.3403,1.3403,1.3403,1.3403,1.3403,1.3403,1.3403,1.3431,1.3451,1.3451,1.3351,1.3378,1.3211,1.325,0.8964,0.0505,0.0168,0.0,0.0,0.0,0.0502,0.2744,0.0,0.0,0.0,0.0,0.0,0.0,0.0,0.0,0.0,0.0,0.0,0.0,0.0,0.0,0.0,0.0,0.0,0.0,0.0,0.0,0.0,0.0,0.0,0.0,0.0,0.0,0.0,0.0,0.0,0.0,0.0,0.0,0.0,0.0,0.0,0.0,0.0,0.0,0.0,0.0,0.0,0.0337,0.6233,0.8932,0.9244,1.213,1.3458,1.3417,1.3417,1.341,1.3397,1.3342,1.3356,1.3397,1.3342,1.3356,1.3403,1.3403,1.3403,1.3403,1.3403,1.3403,1.3403,1.3403,1.3403,1.3403,1.3403,1.3403,1.3403,1.3403,1.3403,1.3403,1.3403,1.3403,1.3403,1.3403,1.3403,1.3403,1.3403,1.3403,1.3403,1.3403,1.3403,1.3403,1.3403,1.3403,1.3403,1.3403,1.3403,1.3403,1.3403,1.3403,1.3403,1.3403,1.3403,1.3403,1.3403,1.341,1.3431,1.3451,1.0419,1.0446,1.3385,0.7424,0.3033,0.0,0.0,0.0,0.6844,0.3558,0.0,0.0,0.0,0.0,0.0,0.0,0.0,0.0,0.0,0.0,0.0,0.0,0.0,0.0,0.0,0.0,0.0,0.0,0.0,0.0,0.0,0.0,0.0,0.0,0.0,0.0,0.0,0.0,0.0,0.0,0.0,0.0,0.0,0.0,0.0,0.0,0.0,0.0,0.0,0.0,0.0,0.0,0.0,0.0505,0.9454,1.1819,0.9235,1.2266,1.3431,1.3403,1.3403,1.3403,1.3403,1.3403,1.3403,1.3403,1.3403,1.3403,1.3403,1.3403,1.3403,1.3403,1.3403,1.3403,1.3403,1.3403,1.3403,1.3403,1.3403,1.3403,1.3403,1.3403,1.3403,1.3403,1.3403,1.3403,1.3403,1.3403,1.3403,1.3403,1.3403,1.3403,1.3403,1.3403,1.3403,1.3403,1.3403,1.3403,1.3403,1.3403,1.3403,1.3403,1.3403,1.3403,1.3403,1.3403,1.3403,1.3403,1.3403,1.3424,1.3424,1.339,0.7368,0.5703,0.8553,0.2856,0.0,0.0,0.0,0.0]}]]